Time,TemperatureF,DewpointF,PressureIn,WindDirection,WindDirectionDegrees,WindSpeedMPH,WindSpeedGustMPH,Humidity,HourlyPrecipIn,Conditions,Clouds,dailyrainin,SoftwareType,DateUTC
2013-01-03 00:01:00,17.4,11.3,29.75,South,180,2.0,6.7,77,0.00,,,0.00,WUHU21623XXSP,2013-01-03 05:01:00,
2013-01-03 00:03:00,16.9,11.2,29.75,South,180,2.0,6.7,77,0.00,,,0.00,WUHU21623XXSP,2013-01-03 05:03:00,
2013-01-03 00:06:00,16.9,10.8,29.75,South,180,11.0,11.0,77,0.00,,,0.00,WUHU21623XXSP,2013-01-03 05:06:00,
2013-01-03 00:08:00,16.7,10.7,29.75,South,180,7.8,11.0,77,0.00,,,0.00,WUHU21623XXSP,2013-01-03 05:08:00,
2013-01-03 00:11:00,16.5,10.5,29.75,SW,225,0.0,11.0,77,0.00,,,0.00,WUHU21623XXSP,2013-01-03 05:11:00,
2013-01-03 00:13:00,16.3,10.3,29.75,SSW,202,2.2,11.0,77,0.00,,,0.00,WUHU21623XXSP,2013-01-03 05:13:00,
2013-01-03 00:16:00,16.2,10.2,29.75,South,180,0.0,7.8,77,0.00,,,0.00,WUHU21623XXSP,2013-01-03 05:16:00,
2013-01-03 00:17:00,16.2,10.2,29.75,South,180,0.0,2.2,77,0.00,,,0.00,WUHU21623XXSP,2013-01-03 05:17:00,
2013-01-03 00:18:00,16.0,10.0,29.75,South,180,6.9,6.9,77,0.00,,,0.00,WUHU21623XXSP,2013-01-03 05:18:00,
2013-01-03 00:21:00,15.8,9.8,29.75,South,180,4.5,6.9,77,0.00,,,0.00,WUHU21623XXSP,2013-01-03 05:21:00,
2013-01-03 00:22:00,15.6,9.4,29.75,SSW,202,1.1,6.9,76,0.00,,,0.00,WUHU21623XXSP,2013-01-03 05:22:00,
2013-01-03 00:23:00,15.6,9.4,29.75,SSW,202,1.1,6.9,76,0.00,,,0.00,WUHU21623XXSP,2013-01-03 05:23:00,
2013-01-03 00:26:00,15.4,9.2,29.75,South,180,1.8,6.9,76,0.00,,,0.00,WUHU21623XXSP,2013-01-03 05:26:00,
2013-01-03 00:27:00,15.4,9.2,29.75,South,180,1.8,6.9,76,0.00,,,0.00,WUHU21623XXSP,2013-01-03 05:27:00,
2013-01-03 00:28:00,15.3,9.0,29.75,SSW,202,0.0,4.5,76,0.00,,,0.00,WUHU21623XXSP,2013-01-03 05:28:00,
2013-01-03 00:31:00,15.1,8.8,29.75,SSW,202,1.1,2.0,76,0.00,,,0.00,WUHU21623XXSP,2013-01-03 05:31:00,
2013-01-03 00:32:00,14.9,8.7,29.75,South,180,0.0,2.0,76,0.00,,,0.00,WUHU21623XXSP,2013-01-03 05:32:00,
2013-01-03 00:33:00,14.9,8.7,29.75,South,180,0.0,1.8,76,0.00,,,0.00,WUHU21623XXSP,2013-01-03 05:33:00,
2013-01-03 00:36:00,14.7,8.5,29.75,South,180,0.0,1.1,76,0.00,,,0.00,WUHU21623XXSP,2013-01-03 05:36:00,
2013-01-03 00:37:00,14.7,8.5,29.75,South,180,0.0,1.1,76,0.00,,,0.00,WUHU21623XXSP,2013-01-03 05:37:00,
2013-01-03 00:38:00,14.7,8.5,29.75,SSW,202,0.0,1.1,76,0.00,,,0.00,WUHU21623XXSP,2013-01-03 05:38:00,
2013-01-03 00:41:00,14.5,8.3,29.75,SW,225,1.8,1.8,76,0.00,,,0.00,WUHU21623XXSP,2013-01-03 05:41:00,
2013-01-03 00:42:00,14.5,8.3,29.75,SW,225,1.8,1.8,76,0.00,,,0.00,WUHU21623XXSP,2013-01-03 05:42:00,
2013-01-03 00:43:00,14.4,8.1,29.75,SW,225,0.0,1.8,76,0.00,,,0.00,WUHU21623XXSP,2013-01-03 05:43:00,
2013-01-03 00:44:00,14.4,8.1,29.75,SW,225,0.0,1.8,76,0.00,,,0.00,WUHU21623XXSP,2013-01-03 05:44:00,
2013-01-03 00:46:00,14.2,8.0,29.75,SSW,202,5.6,5.6,76,0.00,,,0.00,WUHU21623XXSP,2013-01-03 05:46:00,
2013-01-03 00:47:00,14.2,8.0,29.75,SSW,202,0.0,5.6,76,0.00,,,0.00,WUHU21623XXSP,2013-01-03 05:47:00,
2013-01-03 00:48:00,14.2,8.0,29.75,SSW,202,0.0,5.6,76,0.00,,,0.00,WUHU21623XXSP,2013-01-03 05:48:00,
2013-01-03 00:49:00,14.0,7.8,29.75,SSW,202,0.0,5.6,76,0.00,,,0.00,WUHU21623XXSP,2013-01-03 05:49:00,
2013-01-03 00:52:00,13.8,7.8,29.75,SSW,202,0.0,5.6,76,0.00,,,0.00,WUHU21623XXSP,2013-01-03 05:52:00,
2013-01-03 00:53:00,13.8,7.8,29.75,SSW,202,0.0,5.6,76,0.00,,,0.00,WUHU21623XXSP,2013-01-03 05:53:00,
2013-01-03 00:55:00,13.8,7.6,29.75,South,180,0.0,0.0,76,0.00,,,0.00,WUHU21623XXSP,2013-01-03 05:55:00,
2013-01-03 00:57:00,13.6,7.4,29.75,South,180,2.7,2.7,76,0.00,,,0.00,WUHU21623XXSP,2013-01-03 05:57:00,
2013-01-03 00:58:00,13.6,7.4,29.75,South,180,7.4,7.4,76,0.00,,,0.00,WUHU21623XXSP,2013-01-03 05:58:00,
2013-01-03 01:01:00,13.3,7.4,29.75,South,180,7.4,7.4,76,0.00,,,0.00,WUHU21623XXSP,2013-01-03 06:01:00,
2013-01-03 01:02:00,13.3,7.4,29.75,South,180,7.4,7.4,76,0.00,,,0.00,WUHU21623XXSP,2013-01-03 06:02:00,
2013-01-03 01:03:00,13.3,7.1,29.75,South,180,5.1,7.4,76,0.00,,,0.00,WUHU21623XXSP,2013-01-03 06:03:00,
2013-01-03 01:06:00,12.7,6.5,29.75,SSW,202,0.0,7.4,76,0.00,,,0.00,WUHU21623XXSP,2013-01-03 06:06:00,
2013-01-03 01:07:00,12.7,6.5,29.75,SSW,202,0.0,7.4,76,0.00,,,0.00,WUHU21623XXSP,2013-01-03 06:07:00,
2013-01-03 01:09:00,12.7,6.5,29.75,SSW,202,0.0,7.4,76,0.00,,,0.00,WUHU21623XXSP,2013-01-03 06:09:00,
2013-01-03 01:11:00,12.6,6.4,29.75,South,180,1.1,5.1,76,0.00,,,0.00,WUHU21623XXSP,2013-01-03 06:11:00,
2013-01-03 01:12:00,12.6,6.4,29.75,South,180,1.1,5.1,76,0.00,,,0.00,WUHU21623XXSP,2013-01-03 06:12:00,
2013-01-03 01:13:00,12.4,6.2,29.75,South,180,1.3,4.0,76,0.00,,,0.00,WUHU21623XXSP,2013-01-03 06:13:00,
2013-01-03 01:14:00,12.4,6.2,29.75,South,180,1.3,4.0,76,0.00,,,0.00,WUHU21623XXSP,2013-01-03 06:14:00,
2013-01-03 01:16:00,12.4,6.2,29.75,South,180,0.0,1.3,76,0.00,,,0.00,WUHU21623XXSP,2013-01-03 06:16:00,
2013-01-03 01:17:00,12.0,5.8,29.76,South,180,0.0,1.3,76,0.00,,,0.00,WUHU21623XXSP,2013-01-03 06:17:00,
2013-01-03 01:18:00,12.0,5.8,29.76,South,180,0.0,1.3,76,0.00,,,0.00,WUHU21623XXSP,2013-01-03 06:18:00,
2013-01-03 01:19:00,12.0,5.8,29.75,South,180,0.0,1.3,76,0.00,,,0.00,WUHU21623XXSP,2013-01-03 06:19:00,
2013-01-03 01:21:00,11.8,5.6,29.75,South,180,0.0,1.3,76,0.00,,,0.00,WUHU21623XXSP,2013-01-03 06:21:00,
2013-01-03 01:22:00,11.8,5.6,29.75,South,180,0.0,1.3,76,0.00,,,0.00,WUHU21623XXSP,2013-01-03 06:22:00,
2013-01-03 01:23:00,11.7,5.5,29.75,South,180,0.0,0.0,76,0.00,,,0.00,WUHU21623XXSP,2013-01-03 06:23:00,
2013-01-03 01:25:00,11.7,5.5,29.75,South,180,0.0,0.0,76,0.00,,,0.00,WUHU21623XXSP,2013-01-03 06:25:00,
2013-01-03 01:27:00,11.5,5.3,29.75,SSW,202,0.0,0.0,76,0.00,,,0.00,WUHU21623XXSP,2013-01-03 06:27:00,
2013-01-03 01:29:00,11.3,5.1,29.75,South,180,0.0,0.0,76,0.00,,,0.00,WUHU21623XXSP,2013-01-03 06:29:00,
2013-01-03 01:30:00,11.3,5.1,29.75,South,180,0.0,0.0,76,0.00,,,0.00,WUHU21623XXSP,2013-01-03 06:30:00,
2013-01-03 01:32:00,11.1,4.9,29.75,South,180,0.0,0.0,76,0.00,,,0.00,WUHU21623XXSP,2013-01-03 06:32:00,
2013-01-03 01:34:00,11.1,4.9,29.75,South,180,0.0,0.0,76,0.00,,,0.00,WUHU21623XXSP,2013-01-03 06:34:00,
2013-01-03 01:36:00,10.9,4.7,29.75,South,180,0.0,0.0,76,0.00,,,0.00,WUHU21623XXSP,2013-01-03 06:36:00,
2013-01-03 01:38:00,10.9,4.7,29.75,South,180,0.0,0.0,76,0.00,,,0.00,WUHU21623XXSP,2013-01-03 06:38:00,
2013-01-03 01:39:00,10.8,4.6,29.75,South,180,0.0,0.0,76,0.00,,,0.00,WUHU21623XXSP,2013-01-03 06:39:00,
2013-01-03 01:41:00,10.6,4.4,29.74,South,180,0.0,0.0,76,0.00,,,0.00,WUHU21623XXSP,2013-01-03 06:41:00,
2013-01-03 01:43:00,10.6,4.4,29.75,South,180,0.0,0.0,76,0.00,,,0.00,WUHU21623XXSP,2013-01-03 06:43:00,
2013-01-03 01:44:00,10.6,4.4,29.75,South,180,0.0,0.0,76,0.00,,,0.00,WUHU21623XXSP,2013-01-03 06:44:00,
2013-01-03 01:46:00,10.6,4.4,29.74,South,180,0.0,0.0,76,0.00,,,0.00,WUHU21623XXSP,2013-01-03 06:46:00,
2013-01-03 01:48:00,10.6,4.4,29.74,South,180,0.0,0.0,76,0.00,,,0.00,WUHU21623XXSP,2013-01-03 06:48:00,
2013-01-03 01:49:00,10.6,4.4,29.74,South,180,0.0,0.0,76,0.00,,,0.00,WUHU21623XXSP,2013-01-03 06:49:00,
2013-01-03 01:51:00,10.2,4.0,29.74,South,180,0.0,0.0,76,0.00,,,0.00,WUHU21623XXSP,2013-01-03 06:51:00,
2013-01-03 01:53:00,10.2,4.3,29.74,South,180,0.0,0.0,77,0.00,,,0.00,WUHU21623XXSP,2013-01-03 06:53:00,
2013-01-03 01:54:00,10.2,4.3,29.74,South,180,0.0,0.0,77,0.00,,,0.00,WUHU21623XXSP,2013-01-03 06:54:00,
2013-01-03 01:56:00,10.2,4.3,29.74,South,180,0.0,0.0,77,0.00,,,0.00,WUHU21623XXSP,2013-01-03 06:56:00,
2013-01-03 01:58:00,10.2,4.3,29.74,South,180,0.0,0.0,77,0.00,,,0.00,WUHU21623XXSP,2013-01-03 06:58:00,
2013-01-03 01:59:00,10.2,4.3,29.74,South,180,0.0,0.0,77,0.00,,,0.00,WUHU21623XXSP,2013-01-03 06:59:00,
2013-01-03 02:00:00,10.0,4.2,29.74,South,180,0.0,0.0,77,0.00,,,0.00,WUHU21623XXSP,2013-01-03 07:00:00,
2013-01-03 02:02:00,10.0,4.2,29.74,South,180,0.0,0.0,77,0.00,,,0.00,WUHU21623XXSP,2013-01-03 07:02:00,
2013-01-03 02:03:00,10.0,4.2,29.74,South,180,0.0,0.0,77,0.00,,,0.00,WUHU21623XXSP,2013-01-03 07:03:00,
2013-01-03 02:04:00,10.0,4.2,29.74,South,180,0.0,0.0,77,0.00,,,0.00,WUHU21623XXSP,2013-01-03 07:04:00,
2013-01-03 02:05:00,9.7,3.8,29.74,South,180,0.0,0.0,77,0.00,,,0.00,WUHU21623XXSP,2013-01-03 07:05:00,
2013-01-03 02:07:00,9.7,3.8,29.74,South,180,0.0,0.0,77,0.00,,,0.00,WUHU21623XXSP,2013-01-03 07:07:00,
2013-01-03 02:08:00,9.5,3.4,29.74,South,180,0.0,0.0,76,0.00,,,0.00,WUHU21623XXSP,2013-01-03 07:08:00,
2013-01-03 02:09:00,9.5,3.4,29.74,South,180,0.0,0.0,76,0.00,,,0.00,WUHU21623XXSP,2013-01-03 07:09:00,
2013-01-03 02:10:00,9.5,3.4,29.74,South,180,0.0,0.0,76,0.00,,,0.00,WUHU21623XXSP,2013-01-03 07:10:00,
2013-01-03 02:13:00,9.3,3.2,29.74,South,180,0.0,0.0,76,0.00,,,0.00,WUHU21623XXSP,2013-01-03 07:13:00,
2013-01-03 02:14:00,9.3,3.2,29.74,South,180,0.0,0.0,76,0.00,,,0.00,WUHU21623XXSP,2013-01-03 07:14:00,
2013-01-03 02:15:00,9.1,3.1,29.74,South,180,0.0,0.0,76,0.00,,,0.00,WUHU21623XXSP,2013-01-03 07:15:00,
2013-01-03 02:19:00,9.1,3.1,29.74,South,180,0.0,0.0,76,0.00,,,0.00,WUHU21623XXSP,2013-01-03 07:19:00,
2013-01-03 02:20:00,9.1,3.4,29.74,South,180,0.0,0.0,77,0.00,,,0.00,WUHU21623XXSP,2013-01-03 07:20:00,
2013-01-03 02:24:00,9.0,3.2,29.74,South,180,0.0,0.0,77,0.00,,,0.00,WUHU21623XXSP,2013-01-03 07:24:00,
2013-01-03 02:26:00,9.0,3.2,29.74,South,180,0.0,0.0,77,0.00,,,0.00,WUHU21623XXSP,2013-01-03 07:26:00,
2013-01-03 02:29:00,9.0,3.2,29.74,South,180,0.0,0.0,77,0.00,,,0.00,WUHU21623XXSP,2013-01-03 07:29:00,
2013-01-03 02:30:00,8.8,3.0,29.74,South,180,0.0,0.0,77,0.00,,,0.00,WUHU21623XXSP,2013-01-03 07:30:00,
2013-01-03 02:31:00,8.8,3.0,29.74,South,180,0.0,0.0,77,0.00,,,0.00,WUHU21623XXSP,2013-01-03 07:31:00,
2013-01-03 02:34:00,8.8,3.2,29.75,South,180,0.0,0.0,77,0.00,,,0.00,WUHU21623XXSP,2013-01-03 07:34:00,
2013-01-03 02:35:00,8.8,3.2,29.75,South,180,0.0,0.0,77,0.00,,,0.00,WUHU21623XXSP,2013-01-03 07:35:00,
2013-01-03 02:36:00,8.8,3.2,29.75,South,180,0.0,0.0,77,0.00,,,0.00,WUHU21623XXSP,2013-01-03 07:36:00,
2013-01-03 02:39:00,8.8,3.0,29.75,South,180,0.0,0.0,77,0.00,,,0.00,WUHU21623XXSP,2013-01-03 07:39:00,
2013-01-03 02:40:00,8.8,3.0,29.75,South,180,0.0,0.0,77,0.00,,,0.00,WUHU21623XXSP,2013-01-03 07:40:00,
2013-01-03 02:41:00,8.8,3.0,29.75,South,180,0.0,0.0,77,0.00,,,0.00,WUHU21623XXSP,2013-01-03 07:41:00,
2013-01-03 02:44:00,8.8,3.0,29.75,South,180,0.0,0.0,77,0.00,,,0.00,WUHU21623XXSP,2013-01-03 07:44:00,
2013-01-03 02:45:00,8.8,3.0,29.75,South,180,0.0,0.0,77,0.00,,,0.00,WUHU21623XXSP,2013-01-03 07:45:00,
2013-01-03 02:46:00,8.8,3.0,29.75,South,180,0.0,0.0,77,0.00,,,0.00,WUHU21623XXSP,2013-01-03 07:46:00,
2013-01-03 02:49:00,8.8,3.3,29.75,South,180,0.0,0.0,78,0.00,,,0.00,WUHU21623XXSP,2013-01-03 07:49:00,
2013-01-03 02:50:00,8.8,3.3,29.75,South,180,0.0,0.0,78,0.00,,,0.00,WUHU21623XXSP,2013-01-03 07:50:00,
2013-01-03 02:52:00,8.8,3.3,29.75,South,180,0.0,0.0,78,0.00,,,0.00,WUHU21623XXSP,2013-01-03 07:52:00,
2013-01-03 02:54:00,8.8,3.3,29.75,South,180,0.0,0.0,78,0.00,,,0.00,WUHU21623XXSP,2013-01-03 07:54:00,
2013-01-03 02:55:00,8.8,3.3,29.75,South,180,0.0,0.0,78,0.00,,,0.00,WUHU21623XXSP,2013-01-03 07:55:00,
2013-01-03 02:56:00,8.8,3.3,29.75,South,180,0.0,0.0,78,0.00,,,0.00,WUHU21623XXSP,2013-01-03 07:56:00,
2013-01-03 02:57:00,8.8,3.3,29.75,South,180,0.0,0.0,78,0.00,,,0.00,WUHU21623XXSP,2013-01-03 07:57:00,
2013-01-03 02:59:00,8.8,3.3,29.75,South,180,0.0,0.0,78,0.00,,,0.00,WUHU21623XXSP,2013-01-03 07:59:00,
2013-01-03 03:00:00,8.6,3.2,29.75,South,180,0.0,0.0,78,0.00,,,0.00,WUHU21623XXSP,2013-01-03 08:00:00,
2013-01-03 03:01:00,8.6,3.2,29.75,South,180,0.0,0.0,78,0.00,,,0.00,WUHU21623XXSP,2013-01-03 08:01:00,
2013-01-03 03:02:00,8.6,3.2,29.74,South,180,0.0,0.0,78,0.00,,,0.00,WUHU21623XXSP,2013-01-03 08:02:00,
2013-01-03 03:04:00,8.6,3.2,29.74,South,180,0.0,0.0,78,0.00,,,0.00,WUHU21623XXSP,2013-01-03 08:04:00,
2013-01-03 03:06:00,8.6,3.2,29.74,South,180,0.0,0.0,78,0.00,,,0.00,WUHU21623XXSP,2013-01-03 08:06:00,
2013-01-03 03:07:00,8.4,3.0,29.75,South,180,0.0,0.0,78,0.00,,,0.00,WUHU21623XXSP,2013-01-03 08:07:00,
2013-01-03 03:10:00,8.4,3.0,29.74,South,180,0.0,0.0,78,0.00,,,0.00,WUHU21623XXSP,2013-01-03 08:10:00,
2013-01-03 03:11:00,8.4,3.0,29.74,South,180,0.0,0.0,78,0.00,,,0.00,WUHU21623XXSP,2013-01-03 08:11:00,
2013-01-03 03:12:00,8.4,3.0,29.74,South,180,0.0,0.0,78,0.00,,,0.00,WUHU21623XXSP,2013-01-03 08:12:00,
2013-01-03 03:15:00,8.4,3.0,29.74,South,180,0.0,0.0,78,0.00,,,0.00,WUHU21623XXSP,2013-01-03 08:15:00,
2013-01-03 03:16:00,8.4,3.0,29.74,South,180,0.0,0.0,78,0.00,,,0.00,WUHU21623XXSP,2013-01-03 08:16:00,
2013-01-03 03:17:00,8.2,2.8,29.74,South,180,0.0,0.0,78,0.00,,,0.00,WUHU21623XXSP,2013-01-03 08:17:00,
2013-01-03 03:20:00,8.2,2.8,29.73,South,180,0.0,0.0,78,0.00,,,0.00,WUHU21623XXSP,2013-01-03 08:20:00,
2013-01-03 03:21:00,8.2,2.8,29.73,South,180,0.0,0.0,78,0.00,,,0.00,WUHU21623XXSP,2013-01-03 08:21:00,
2013-01-03 03:23:00,8.1,2.8,29.73,South,180,0.0,0.0,78,0.00,,,0.00,WUHU21623XXSP,2013-01-03 08:23:00,
2013-01-03 03:25:00,7.9,2.4,29.73,South,180,0.0,0.0,78,0.00,,,0.00,WUHU21623XXSP,2013-01-03 08:25:00,
2013-01-03 03:26:00,7.9,2.4,29.73,South,180,0.0,0.0,78,0.00,,,0.00,WUHU21623XXSP,2013-01-03 08:26:00,
2013-01-03 03:28:00,7.7,2.3,29.73,South,180,0.0,0.0,78,0.00,,,0.00,WUHU21623XXSP,2013-01-03 08:28:00,
2013-01-03 03:30:00,7.7,2.3,29.73,South,180,0.0,0.0,78,0.00,,,0.00,WUHU21623XXSP,2013-01-03 08:30:00,
2013-01-03 03:31:00,7.7,2.3,29.73,South,180,0.0,0.0,78,0.00,,,0.00,WUHU21623XXSP,2013-01-03 08:31:00,
2013-01-03 03:32:00,7.7,2.3,29.73,South,180,0.0,0.0,78,0.00,,,0.00,WUHU21623XXSP,2013-01-03 08:32:00,
2013-01-03 03:33:00,7.5,2.1,29.73,SSE,157,0.0,0.0,78,0.00,,,0.00,WUHU21623XXSP,2013-01-03 08:33:00,
2013-01-03 03:35:00,7.5,2.1,29.73,SSE,157,0.0,0.0,78,0.00,,,0.00,WUHU21623XXSP,2013-01-03 08:35:00,
2013-01-03 03:36:00,7.3,2.1,29.73,SSE,157,1.8,1.8,78,0.00,,,0.00,WUHU21623XXSP,2013-01-03 08:36:00,
2013-01-03 03:37:00,7.3,2.1,29.73,SSE,157,1.8,1.8,78,0.00,,,0.00,WUHU21623XXSP,2013-01-03 08:37:00,
2013-01-03 03:38:00,7.3,1.9,29.73,SSE,157,1.8,1.8,78,0.00,,,0.00,WUHU21623XXSP,2013-01-03 08:38:00,
2013-01-03 03:40:00,7.3,1.9,29.73,SSE,157,1.8,1.8,78,0.00,,,0.00,WUHU21623XXSP,2013-01-03 08:40:00,
2013-01-03 03:41:00,7.2,1.7,29.73,South,180,2.0,2.0,78,0.00,,,0.00,WUHU21623XXSP,2013-01-03 08:41:00,
2013-01-03 03:42:00,7.2,1.7,29.73,South,180,2.0,2.0,78,0.00,,,0.00,WUHU21623XXSP,2013-01-03 08:42:00,
2013-01-03 03:43:00,7.0,1.5,29.73,South,180,1.8,2.0,78,0.00,,,0.00,WUHU21623XXSP,2013-01-03 08:43:00,
2013-01-03 03:46:00,7.0,1.5,29.73,South,180,1.1,2.0,78,0.00,,,0.00,WUHU21623XXSP,2013-01-03 08:46:00,
2013-01-03 03:47:00,7.0,1.5,29.73,South,180,1.1,2.0,78,0.00,,,0.00,WUHU21623XXSP,2013-01-03 08:47:00,
2013-01-03 03:48:00,6.6,1.5,29.73,South,180,1.1,2.0,78,0.00,,,0.00,WUHU21623XXSP,2013-01-03 08:48:00,
2013-01-03 03:51:00,6.6,1.2,29.73,South,180,0.0,1.8,78,0.00,,,0.00,WUHU21623XXSP,2013-01-03 08:51:00,
2013-01-03 03:52:00,6.4,1.0,29.73,South,180,0.4,1.8,78,0.00,,,0.00,WUHU21623XXSP,2013-01-03 08:52:00,
2013-01-03 03:54:00,6.4,1.0,29.73,South,180,0.4,1.1,78,0.00,,,0.00,WUHU21623XXSP,2013-01-03 08:54:00,
2013-01-03 03:56:00,6.1,0.6,29.72,South,180,0.0,1.1,78,0.00,,,0.00,WUHU21623XXSP,2013-01-03 08:56:00,
2013-01-03 03:57:00,6.1,0.6,29.72,South,180,0.0,0.4,78,0.00,,,0.00,WUHU21623XXSP,2013-01-03 08:57:00,
2013-01-03 03:59:00,6.1,0.6,29.72,South,180,0.0,0.4,78,0.00,,,0.00,WUHU21623XXSP,2013-01-03 08:59:00,
2013-01-03 04:01:00,6.1,0.6,29.72,South,180,0.0,0.0,78,0.00,,,0.00,WUHU21623XXSP,2013-01-03 09:01:00,
2013-01-03 04:02:00,6.1,0.6,29.73,South,180,0.0,0.0,78,0.00,,,0.00,WUHU21623XXSP,2013-01-03 09:02:00,
2013-01-03 04:03:00,6.1,0.6,29.73,South,180,0.0,0.0,78,0.00,,,0.00,WUHU21623XXSP,2013-01-03 09:03:00,
2013-01-03 04:04:00,6.1,0.6,29.73,South,180,0.0,0.0,78,0.00,,,0.00,WUHU21623XXSP,2013-01-03 09:04:00,
2013-01-03 04:07:00,6.1,0.6,29.72,South,180,2.5,2.5,78,0.00,,,0.00,WUHU21623XXSP,2013-01-03 09:07:00,
2013-01-03 04:08:00,6.1,0.6,29.72,South,180,2.5,2.5,78,0.00,,,0.00,WUHU21623XXSP,2013-01-03 09:08:00,
2013-01-03 04:09:00,5.9,0.6,29.73,South,180,2.5,2.5,78,0.00,,,0.00,WUHU21623XXSP,2013-01-03 09:09:00,
2013-01-03 04:12:00,6.1,0.6,29.72,South,180,3.1,3.1,78,0.00,,,0.00,WUHU21623XXSP,2013-01-03 09:12:00,
2013-01-03 04:13:00,6.1,0.6,29.72,South,180,4.3,4.3,78,0.00,,,0.00,WUHU21623XXSP,2013-01-03 09:13:00,
2013-01-03 04:14:00,6.1,0.6,29.72,South,180,4.3,4.3,78,0.00,,,0.00,WUHU21623XXSP,2013-01-03 09:14:00,
2013-01-03 04:17:00,5.9,0.5,29.72,South,180,0.9,4.3,78,0.00,,,0.00,WUHU21623XXSP,2013-01-03 09:17:00,
2013-01-03 04:18:00,5.9,0.5,29.72,South,180,0.0,4.3,78,0.00,,,0.00,WUHU21623XXSP,2013-01-03 09:18:00,
2013-01-03 04:19:00,5.7,0.3,29.72,South,180,0.0,4.3,78,0.00,,,0.00,WUHU21623XXSP,2013-01-03 09:19:00,
2013-01-03 04:22:00,5.7,0.3,29.72,South,180,0.0,4.3,78,0.00,,,0.00,WUHU21623XXSP,2013-01-03 09:22:00,
2013-01-03 04:23:00,5.7,0.3,29.72,South,180,0.0,0.9,78,0.00,,,0.00,WUHU21623XXSP,2013-01-03 09:23:00,
2013-01-03 04:25:00,5.7,0.3,29.72,South,180,0.0,0.9,78,0.00,,,0.00,WUHU21623XXSP,2013-01-03 09:25:00,
2013-01-03 04:27:00,5.5,0.3,29.72,South,180,0.0,0.0,78,0.00,,,0.00,WUHU21623XXSP,2013-01-03 09:27:00,
2013-01-03 04:28:00,5.5,0.1,29.72,South,180,0.0,0.0,78,0.00,,,0.00,WUHU21623XXSP,2013-01-03 09:28:00,
2013-01-03 04:30:00,5.5,0.1,29.72,South,180,0.0,0.0,78,0.00,,,0.00,WUHU21623XXSP,2013-01-03 09:30:00,
2013-01-03 04:32:00,5.5,0.1,29.72,South,180,0.0,0.0,78,0.00,,,0.00,WUHU21623XXSP,2013-01-03 09:32:00,
2013-01-03 04:33:00,5.5,0.1,29.72,South,180,0.0,0.0,78,0.00,,,0.00,WUHU21623XXSP,2013-01-03 09:33:00,
2013-01-03 04:35:00,5.5,0.1,29.72,South,180,0.0,0.0,78,0.00,,,0.00,WUHU21623XXSP,2013-01-03 09:35:00,
2013-01-03 04:37:00,5.4,-0.1,29.72,South,180,0.0,0.0,78,0.00,,,0.00,WUHU21623XXSP,2013-01-03 09:37:00,
2013-01-03 04:38:00,5.4,-0.1,29.72,South,180,0.0,0.0,78,0.00,,,0.00,WUHU21623XXSP,2013-01-03 09:38:00,
2013-01-03 04:40:00,5.4,-0.1,29.72,South,180,1.1,1.1,78,0.00,,,0.00,WUHU21623XXSP,2013-01-03 09:40:00,
2013-01-03 04:42:00,5.4,-0.1,29.71,South,180,0.0,1.1,78,0.00,,,0.00,WUHU21623XXSP,2013-01-03 09:42:00,
2013-01-03 04:43:00,4.8,-0.1,29.71,South,180,0.7,1.1,78,0.00,,,0.00,WUHU21623XXSP,2013-01-03 09:43:00,
2013-01-03 04:44:00,4.8,-0.1,29.71,South,180,0.7,1.1,78,0.00,,,0.00,WUHU21623XXSP,2013-01-03 09:44:00,
2013-01-03 04:45:00,5.4,-0.1,29.72,South,180,0.0,1.1,78,0.00,,,0.00,WUHU21623XXSP,2013-01-03 09:45:00,
2013-01-03 04:47:00,5.4,-0.1,29.71,South,180,0.0,1.1,78,0.00,,,0.00,WUHU21623XXSP,2013-01-03 09:47:00,
2013-01-03 04:48:00,5.4,-0.1,29.71,South,180,0.0,1.1,78,0.00,,,0.00,WUHU21623XXSP,2013-01-03 09:48:00,
2013-01-03 04:49:00,5.4,-0.1,29.71,South,180,0.0,0.7,78,0.00,,,0.00,WUHU21623XXSP,2013-01-03 09:49:00,
2013-01-03 04:50:00,4.8,-0.6,29.71,South,180,1.3,1.3,78,0.00,,,0.00,WUHU21623XXSP,2013-01-03 09:50:00,
2013-01-03 04:53:00,5.2,-0.6,29.71,South,180,1.3,1.3,78,0.00,,,0.00,WUHU21623XXSP,2013-01-03 09:53:00,
2013-01-03 04:54:00,5.2,-0.3,29.71,South,180,1.3,1.3,79,0.00,,,0.00,WUHU21623XXSP,2013-01-03 09:54:00,
2013-01-03 04:55:00,5.4,0.2,29.71,South,180,0.0,1.3,79,0.00,,,0.00,WUHU21623XXSP,2013-01-03 09:55:00,
2013-01-03 04:58:00,5.4,0.2,29.71,South,180,0.0,1.3,79,0.00,,,0.00,WUHU21623XXSP,2013-01-03 09:58:00,
2013-01-03 04:59:00,5.4,0.2,29.71,South,180,0.0,1.3,79,0.00,,,0.00,WUHU21623XXSP,2013-01-03 09:59:00,
2013-01-03 05:01:00,5.5,0.2,29.71,South,180,0.0,1.3,79,0.00,,,0.00,WUHU21623XXSP,2013-01-03 10:01:00,
2013-01-03 05:03:00,5.7,0.6,29.72,SSW,202,0.0,1.3,79,0.00,,,0.00,WUHU21623XXSP,2013-01-03 10:03:00,
2013-01-03 05:04:00,5.7,0.6,29.72,SSW,202,0.0,0.0,79,0.00,,,0.00,WUHU21623XXSP,2013-01-03 10:04:00,
2013-01-03 05:06:00,6.1,0.8,29.71,SSW,202,0.0,0.0,79,0.00,,,0.00,WUHU21623XXSP,2013-01-03 10:06:00,
2013-01-03 05:08:00,6.4,1.6,29.71,SSW,202,0.0,0.0,80,0.00,,,0.00,WUHU21623XXSP,2013-01-03 10:08:00,
2013-01-03 05:09:00,6.4,1.6,29.71,SSW,202,0.0,0.0,80,0.00,,,0.00,WUHU21623XXSP,2013-01-03 10:09:00,
2013-01-03 05:11:00,6.6,1.6,29.71,SSW,202,0.0,0.0,80,0.00,,,0.00,WUHU21623XXSP,2013-01-03 10:11:00,
2013-01-03 05:13:00,6.6,1.8,29.70,SSW,202,0.0,0.0,80,0.00,,,0.00,WUHU21623XXSP,2013-01-03 10:13:00,
2013-01-03 05:14:00,6.6,1.8,29.70,SSW,202,0.0,0.0,80,0.00,,,0.00,WUHU21623XXSP,2013-01-03 10:14:00,
2013-01-03 05:16:00,7.0,1.8,29.70,SSW,202,0.0,0.0,80,0.00,,,0.00,WUHU21623XXSP,2013-01-03 10:16:00,
2013-01-03 05:18:00,7.0,1.8,29.70,SSW,202,0.0,0.0,79,0.00,,,0.00,WUHU21623XXSP,2013-01-03 10:18:00,
2013-01-03 05:19:00,7.0,1.8,29.70,SSW,202,0.0,0.0,79,0.00,,,0.00,WUHU21623XXSP,2013-01-03 10:19:00,
2013-01-03 05:21:00,7.0,1.8,29.70,South,180,0.0,0.0,79,0.00,,,0.00,WUHU21623XXSP,2013-01-03 10:21:00,
2013-01-03 05:23:00,7.0,1.8,29.70,South,180,0.0,0.0,79,0.00,,,0.00,WUHU21623XXSP,2013-01-03 10:23:00,
2013-01-03 05:24:00,7.0,1.8,29.70,South,180,0.0,0.0,79,0.00,,,0.00,WUHU21623XXSP,2013-01-03 10:24:00,
2013-01-03 05:26:00,7.0,1.8,29.70,South,180,0.0,0.0,79,0.00,,,0.00,WUHU21623XXSP,2013-01-03 10:26:00,
2013-01-03 05:28:00,6.6,1.5,29.70,South,180,0.7,0.7,79,0.00,,,0.00,WUHU21623XXSP,2013-01-03 10:28:00,
2013-01-03 05:29:00,6.6,1.5,29.70,South,180,0.7,0.7,79,0.00,,,0.00,WUHU21623XXSP,2013-01-03 10:29:00,
2013-01-03 05:32:00,6.6,1.5,29.70,South,180,2.7,2.7,79,0.00,,,0.00,WUHU21623XXSP,2013-01-03 10:32:00,
2013-01-03 05:34:00,6.6,1.5,29.70,South,180,2.7,2.7,79,0.00,,,0.00,WUHU21623XXSP,2013-01-03 10:34:00,
2013-01-03 05:37:00,6.6,1.5,29.70,South,180,2.5,2.7,79,0.00,,,0.00,WUHU21623XXSP,2013-01-03 10:37:00,
2013-01-03 05:39:00,6.6,1.5,29.70,South,180,2.5,2.7,79,0.00,,,0.00,WUHU21623XXSP,2013-01-03 10:39:00,
2013-01-03 05:42:00,6.6,1.5,29.70,South,180,5.1,5.1,79,0.00,,,0.00,WUHU21623XXSP,2013-01-03 10:42:00,
2013-01-03 05:44:00,6.6,1.5,29.70,South,180,3.6,5.1,79,0.00,,,0.00,WUHU21623XXSP,2013-01-03 10:44:00,
2013-01-03 05:45:00,6.8,1.5,29.70,South,180,3.6,5.1,79,0.00,,,0.00,WUHU21623XXSP,2013-01-03 10:45:00,
2013-01-03 05:47:00,7.0,1.8,29.70,South,180,4.0,5.1,79,0.00,,,0.00,WUHU21623XXSP,2013-01-03 10:47:00,
2013-01-03 05:49:00,7.2,2.0,29.69,South,180,4.7,5.1,79,0.00,,,0.00,WUHU21623XXSP,2013-01-03 10:49:00,
2013-01-03 05:50:00,7.2,2.0,29.69,South,180,4.7,5.1,79,0.00,,,0.00,WUHU21623XXSP,2013-01-03 10:50:00,
2013-01-03 05:52:00,7.3,2.0,29.69,South,180,5.8,5.8,79,0.00,,,0.00,WUHU21623XXSP,2013-01-03 10:52:00,
2013-01-03 05:54:00,7.5,2.7,29.69,South,180,6.7,6.7,80,0.00,,,0.00,WUHU21623XXSP,2013-01-03 10:54:00,
2013-01-03 05:55:00,7.5,2.7,29.69,South,180,6.7,6.7,80,0.00,,,0.00,WUHU21623XXSP,2013-01-03 10:55:00,
2013-01-03 05:57:00,7.7,2.8,29.69,South,180,8.1,8.1,80,0.00,,,0.00,WUHU21623XXSP,2013-01-03 10:57:00,
2013-01-03 05:59:00,7.7,2.8,29.69,South,180,8.1,8.1,80,0.00,,,0.00,WUHU21623XXSP,2013-01-03 10:59:00,
2013-01-03 06:00:00,8.1,3.2,29.70,South,180,4.3,8.1,80,0.00,,,0.00,WUHU21623XXSP,2013-01-03 11:00:00,
2013-01-03 06:03:00,8.2,3.4,29.70,South,180,7.6,8.1,80,0.00,,,0.00,WUHU21623XXSP,2013-01-03 11:03:00,
2013-01-03 06:05:00,8.4,3.6,29.70,SSW,202,5.6,8.1,80,0.00,,,0.00,WUHU21623XXSP,2013-01-03 11:05:00,
2013-01-03 06:08:00,8.6,3.7,29.70,South,180,6.3,7.6,80,0.00,,,0.00,WUHU21623XXSP,2013-01-03 11:08:00,
2013-01-03 06:10:00,8.8,3.9,29.70,South,180,7.8,7.8,80,0.00,,,0.00,WUHU21623XXSP,2013-01-03 11:10:00,
2013-01-03 06:13:00,9.0,4.1,29.69,South,180,6.7,7.8,80,0.00,,,0.00,WUHU21623XXSP,2013-01-03 11:13:00,
2013-01-03 06:15:00,9.3,4.4,29.70,South,180,6.3,7.8,80,0.00,,,0.00,WUHU21623XXSP,2013-01-03 11:15:00,
2013-01-03 06:16:00,9.3,4.4,29.70,South,180,6.3,7.8,80,0.00,,,0.00,WUHU21623XXSP,2013-01-03 11:16:00,
2013-01-03 06:18:00,9.5,4.4,29.70,South,180,6.3,7.8,80,0.00,,,0.00,WUHU21623XXSP,2013-01-03 11:18:00,
2013-01-03 06:20:00,9.7,4.7,29.69,South,180,2.9,7.6,80,0.00,,,0.00,WUHU21623XXSP,2013-01-03 11:20:00,
2013-01-03 06:21:00,9.7,4.7,29.69,South,180,2.9,7.6,80,0.00,,,0.00,WUHU21623XXSP,2013-01-03 11:21:00,
2013-01-03 06:23:00,9.7,4.7,29.69,South,180,5.8,7.6,80,0.00,,,0.00,WUHU21623XXSP,2013-01-03 11:23:00,
2013-01-03 06:25:00,9.9,4.9,29.69,South,180,5.6,6.3,80,0.00,,,0.00,WUHU21623XXSP,2013-01-03 11:25:00,
2013-01-03 06:26:00,10.0,4.9,29.69,South,180,5.6,6.3,79,0.00,,,0.00,WUHU21623XXSP,2013-01-03 11:26:00,
2013-01-03 06:28:00,10.2,4.9,29.69,South,180,6.9,6.9,79,0.00,,,0.00,WUHU21623XXSP,2013-01-03 11:28:00,
2013-01-03 06:30:00,10.2,4.9,29.69,South,180,7.2,7.2,79,0.00,,,0.00,WUHU21623XXSP,2013-01-03 11:30:00,
2013-01-03 06:31:00,10.2,4.9,29.69,South,180,7.2,7.2,79,0.00,,,0.00,WUHU21623XXSP,2013-01-03 11:31:00,
2013-01-03 06:33:00,10.2,4.9,29.69,South,180,6.3,7.2,79,0.00,,,0.00,WUHU21623XXSP,2013-01-03 11:33:00,
2013-01-03 06:35:00,10.4,5.1,29.69,SSW,202,2.9,7.2,79,0.00,,,0.00,WUHU21623XXSP,2013-01-03 11:35:00,
2013-01-03 06:36:00,10.4,5.1,29.69,SSW,202,2.9,7.2,79,0.00,,,0.00,WUHU21623XXSP,2013-01-03 11:36:00,
2013-01-03 06:38:00,10.6,5.3,29.69,South,180,2.9,7.8,79,0.00,,,0.00,WUHU21623XXSP,2013-01-03 11:38:00,
2013-01-03 06:40:00,10.8,5.4,29.69,South,180,3.4,7.8,79,0.00,,,0.00,WUHU21623XXSP,2013-01-03 11:40:00,
2013-01-03 06:41:00,10.8,5.4,29.69,South,180,3.4,7.8,79,0.00,,,0.00,WUHU21623XXSP,2013-01-03 11:41:00,
2013-01-03 06:44:00,10.8,5.4,29.69,South,180,1.1,7.8,79,0.00,,,0.00,WUHU21623XXSP,2013-01-03 11:44:00,
2013-01-03 06:45:00,10.9,5.6,29.69,SSW,202,4.5,7.8,79,0.00,,,0.00,WUHU21623XXSP,2013-01-03 11:45:00,
2013-01-03 06:46:00,10.9,5.6,29.69,SSW,202,4.5,7.8,79,0.00,,,0.00,WUHU21623XXSP,2013-01-03 11:46:00,
2013-01-03 06:47:00,10.9,5.6,29.69,SSW,202,4.5,4.5,79,0.00,,,0.00,WUHU21623XXSP,2013-01-03 11:47:00,
2013-01-03 06:49:00,11.1,5.8,29.70,South,180,4.0,4.5,79,0.00,,,0.00,WUHU21623XXSP,2013-01-03 11:49:00,
2013-01-03 06:51:00,11.1,5.8,29.70,South,180,4.0,4.5,79,0.00,,,0.00,WUHU21623XXSP,2013-01-03 11:51:00,
2013-01-03 06:52:00,11.1,5.8,29.69,South,180,0.0,4.5,79,0.00,,,0.00,WUHU21623XXSP,2013-01-03 11:52:00,
2013-01-03 06:54:00,11.1,5.8,29.69,South,180,8.3,8.3,79,0.00,,,0.00,WUHU21623XXSP,2013-01-03 11:54:00,
2013-01-03 06:56:00,11.3,6.0,29.69,South,180,8.3,8.3,79,0.00,,,0.00,WUHU21623XXSP,2013-01-03 11:56:00,
2013-01-03 06:57:00,11.3,6.0,29.69,South,180,8.3,8.3,79,0.00,,,0.00,WUHU21623XXSP,2013-01-03 11:57:00,
2013-01-03 06:59:00,11.5,6.2,29.69,South,180,8.1,8.3,79,0.00,,,0.00,WUHU21623XXSP,2013-01-03 11:59:00,
2013-01-03 07:01:00,11.5,6.2,29.68,South,180,8.1,8.3,79,0.00,,,0.00,WUHU21623XXSP,2013-01-03 12:01:00,
2013-01-03 07:02:00,11.7,6.3,29.69,South,180,4.3,8.3,79,0.00,,,0.00,WUHU21623XXSP,2013-01-03 12:02:00,
2013-01-03 07:04:00,11.7,6.3,29.69,South,180,7.6,8.3,79,0.00,,,0.00,WUHU21623XXSP,2013-01-03 12:04:00,
2013-01-03 07:06:00,11.7,6.3,29.69,South,180,7.6,8.1,79,0.00,,,0.00,WUHU21623XXSP,2013-01-03 12:06:00,
2013-01-03 07:07:00,11.8,6.5,29.69,South,180,6.5,8.1,79,0.00,,,0.00,WUHU21623XXSP,2013-01-03 12:07:00,
2013-01-03 07:09:00,12.0,6.7,29.68,SSW,202,5.6,8.1,79,0.00,,,0.00,WUHU21623XXSP,2013-01-03 12:09:00,
2013-01-03 07:11:00,12.0,6.7,29.68,South,180,6.0,7.6,79,0.00,,,0.00,WUHU21623XXSP,2013-01-03 12:11:00,
2013-01-03 07:12:00,12.0,6.7,29.68,South,180,6.0,7.6,79,0.00,,,0.00,WUHU21623XXSP,2013-01-03 12:12:00,
2013-01-03 07:14:00,12.0,6.7,29.68,South,180,0.0,6.5,79,0.00,,,0.00,WUHU21623XXSP,2013-01-03 12:14:00,
2013-01-03 07:16:00,12.2,6.9,29.69,SSW,202,2.2,6.0,79,0.00,,,0.00,WUHU21623XXSP,2013-01-03 12:16:00,
2013-01-03 07:17:00,12.2,6.9,29.69,SSW,202,1.8,6.0,79,0.00,,,0.00,WUHU21623XXSP,2013-01-03 12:17:00,
2013-01-03 07:19:00,12.4,6.9,29.69,SSW,202,1.8,6.0,79,0.00,,,0.00,WUHU21623XXSP,2013-01-03 12:19:00,
2013-01-03 07:21:00,12.4,7.1,29.69,SSW,202,0.0,2.2,79,0.00,,,0.00,WUHU21623XXSP,2013-01-03 12:21:00,
2013-01-03 07:22:00,12.4,7.1,29.69,SSW,202,0.0,2.2,79,0.00,,,0.00,WUHU21623XXSP,2013-01-03 12:22:00,
2013-01-03 07:24:00,12.6,7.1,29.69,SSW,202,0.0,2.2,79,0.00,,,0.00,WUHU21623XXSP,2013-01-03 12:24:00,
2013-01-03 07:26:00,12.7,7.4,29.69,SSW,202,0.0,1.8,79,0.00,,,0.00,WUHU21623XXSP,2013-01-03 12:26:00,
2013-01-03 07:27:00,12.7,7.4,29.69,SSW,202,0.0,1.8,79,0.00,,,0.00,WUHU21623XXSP,2013-01-03 12:27:00,
2013-01-03 07:29:00,12.7,7.4,29.69,SW,225,0.2,0.2,79,0.00,,,0.00,WUHU21623XXSP,2013-01-03 12:29:00,
2013-01-03 07:31:00,12.7,7.4,29.69,SW,225,0.2,0.2,79,0.00,,,0.00,WUHU21623XXSP,2013-01-03 12:31:00,
2013-01-03 07:32:00,12.7,7.4,29.69,SW,225,6.0,6.0,79,0.00,,,0.00,WUHU21623XXSP,2013-01-03 12:32:00,
2013-01-03 07:33:00,12.7,7.4,29.69,SW,225,6.0,6.0,79,0.00,,,0.00,WUHU21623XXSP,2013-01-03 12:33:00,
2013-01-03 07:34:00,12.9,7.6,29.69,SSW,202,0.0,6.0,79,0.00,,,0.00,WUHU21623XXSP,2013-01-03 12:34:00,
2013-01-03 07:37:00,12.9,7.3,29.69,SW,225,2.9,6.0,78,0.00,,,0.00,WUHU21623XXSP,2013-01-03 12:37:00,
2013-01-03 07:38:00,12.9,7.3,29.69,SW,225,2.9,6.0,78,0.00,,,0.00,WUHU21623XXSP,2013-01-03 12:38:00,
2013-01-03 07:40:00,13.1,7.5,29.69,SW,225,6.3,6.3,78,0.00,,,0.00,WUHU21623XXSP,2013-01-03 12:40:00,
2013-01-03 07:42:00,13.1,7.5,29.69,SSW,202,2.0,6.3,78,0.00,,,0.00,WUHU21623XXSP,2013-01-03 12:42:00,
2013-01-03 07:43:00,13.3,7.7,29.69,SW,225,3.1,6.3,78,0.00,,,0.00,WUHU21623XXSP,2013-01-03 12:43:00,
2013-01-03 07:45:00,13.3,7.7,29.69,SW,225,1.3,6.3,78,0.00,,,0.00,WUHU21623XXSP,2013-01-03 12:45:00,
2013-01-03 07:47:00,13.3,7.7,29.69,SW,225,5.1,6.3,78,0.00,,,0.00,WUHU21623XXSP,2013-01-03 12:47:00,
2013-01-03 07:48:00,13.3,7.7,29.69,SW,225,5.1,6.3,78,0.00,,,0.00,WUHU21623XXSP,2013-01-03 12:48:00,
2013-01-03 07:50:00,13.6,7.7,29.69,SW,225,5.1,5.1,78,0.00,,,0.00,WUHU21623XXSP,2013-01-03 12:50:00,
2013-01-03 07:52:00,13.6,8.0,29.69,SSW,202,3.8,5.1,78,0.00,,,0.00,WUHU21623XXSP,2013-01-03 12:52:00,
2013-01-03 07:53:00,13.6,8.0,29.69,SSW,202,3.8,5.1,78,0.00,,,0.00,WUHU21623XXSP,2013-01-03 12:53:00,
2013-01-03 07:54:00,13.8,8.2,29.69,SW,225,6.0,6.0,78,0.00,,,0.00,WUHU21623XXSP,2013-01-03 12:54:00,
2013-01-03 07:55:00,13.8,8.2,29.69,SW,225,6.0,6.0,78,0.00,,,0.00,WUHU21623XXSP,2013-01-03 12:55:00,
2013-01-03 07:57:00,13.8,8.2,29.69,SSW,202,2.9,6.0,78,0.00,,,0.00,WUHU21623XXSP,2013-01-03 12:57:00,
2013-01-03 07:58:00,14.0,8.4,29.68,SSW,202,1.6,6.0,78,0.00,,,0.00,WUHU21623XXSP,2013-01-03 12:58:00,
2013-01-03 07:59:00,14.0,8.4,29.68,SSW,202,1.6,6.0,78,0.00,,,0.00,WUHU21623XXSP,2013-01-03 12:59:00,
2013-01-03 08:00:00,14.2,8.4,29.68,SSW,202,1.6,6.0,78,0.00,,,0.00,WUHU21623XXSP,2013-01-03 13:00:00,
2013-01-03 08:02:00,14.2,8.5,29.68,South,180,3.8,6.0,78,0.00,,,0.00,WUHU21623XXSP,2013-01-03 13:02:00,
2013-01-03 08:03:00,14.2,8.5,29.68,South,180,3.8,6.0,78,0.00,,,0.00,WUHU21623XXSP,2013-01-03 13:03:00,
2013-01-03 08:04:00,14.2,8.3,29.69,SSW,202,0.0,3.8,77,0.00,,,0.00,WUHU21623XXSP,2013-01-03 13:04:00,
2013-01-03 08:05:00,14.2,8.3,29.69,SSW,202,0.0,3.8,77,0.00,,,0.00,WUHU21623XXSP,2013-01-03 13:05:00,
2013-01-03 08:07:00,14.4,8.4,29.69,SSW,202,2.0,3.8,77,0.00,,,0.00,WUHU21623XXSP,2013-01-03 13:07:00,
2013-01-03 08:08:00,14.4,8.4,29.69,SSW,202,2.0,3.8,77,0.00,,,0.00,WUHU21623XXSP,2013-01-03 13:08:00,
2013-01-03 08:09:00,14.4,8.4,29.68,SSW,202,0.4,3.8,77,0.00,,,0.00,WUHU21623XXSP,2013-01-03 13:09:00,
2013-01-03 08:10:00,14.5,8.6,29.69,SW,225,0.0,3.8,77,0.00,,,0.00,WUHU21623XXSP,2013-01-03 13:10:00,
2013-01-03 08:12:00,14.5,8.6,29.69,SW,225,0.0,2.0,77,0.00,,,0.00,WUHU21623XXSP,2013-01-03 13:12:00,
2013-01-03 08:13:00,14.5,8.6,29.69,SSW,202,1.6,2.0,77,0.00,,,0.00,WUHU21623XXSP,2013-01-03 13:13:00,
2013-01-03 08:14:00,14.5,8.6,29.69,SSW,202,1.6,2.0,77,0.00,,,0.00,WUHU21623XXSP,2013-01-03 13:14:00,
2013-01-03 08:16:00,14.5,8.6,29.68,SSW,202,3.1,3.1,77,0.00,,,0.00,WUHU21623XXSP,2013-01-03 13:16:00,
2013-01-03 08:18:00,14.7,8.6,29.69,SSW,202,3.1,3.1,77,0.00,,,0.00,WUHU21623XXSP,2013-01-03 13:18:00,
2013-01-03 08:19:00,14.7,8.8,29.69,SW,225,4.5,4.5,77,0.00,,,0.00,WUHU21623XXSP,2013-01-03 13:19:00,
2013-01-03 08:21:00,14.7,8.8,29.69,SW,225,4.5,4.5,77,0.00,,,0.00,WUHU21623XXSP,2013-01-03 13:21:00,
2013-01-03 08:23:00,14.7,8.8,29.69,SSW,202,1.1,4.5,77,0.00,,,0.00,WUHU21623XXSP,2013-01-03 13:23:00,
2013-01-03 08:24:00,14.7,8.8,29.69,SSW,202,2.5,4.5,77,0.00,,,0.00,WUHU21623XXSP,2013-01-03 13:24:00,
2013-01-03 08:26:00,14.9,9.0,29.69,SW,225,0.0,4.5,77,0.00,,,0.00,WUHU21623XXSP,2013-01-03 13:26:00,
2013-01-03 08:28:00,14.9,9.0,29.69,SW,225,0.0,4.5,77,0.00,,,0.00,WUHU21623XXSP,2013-01-03 13:28:00,
2013-01-03 08:29:00,14.9,9.0,29.69,SW,225,0.0,2.5,77,0.00,,,0.00,WUHU21623XXSP,2013-01-03 13:29:00,
2013-01-03 08:30:00,15.1,9.1,29.68,SW,225,0.2,2.5,77,0.00,,,0.00,WUHU21623XXSP,2013-01-03 13:30:00,
2013-01-03 08:31:00,15.1,9.1,29.68,SW,225,0.2,2.5,77,0.00,,,0.00,WUHU21623XXSP,2013-01-03 13:31:00,
2013-01-03 08:33:00,15.1,9.1,29.69,SSW,202,7.2,7.2,77,0.00,,,0.00,WUHU21623XXSP,2013-01-03 13:33:00,
2013-01-03 08:35:00,15.3,9.3,29.69,SW,225,5.6,7.2,77,0.00,,,0.00,WUHU21623XXSP,2013-01-03 13:35:00,
2013-01-03 08:36:00,15.4,9.5,29.69,SW,225,0.0,7.2,77,0.00,,,0.00,WUHU21623XXSP,2013-01-03 13:36:00,
2013-01-03 08:38:00,15.4,9.2,29.69,WSW,247,2.5,7.2,76,0.00,,,0.00,WUHU21623XXSP,2013-01-03 13:38:00,
2013-01-03 08:40:00,15.4,9.2,29.69,WSW,247,2.5,7.2,76,0.00,,,0.00,WUHU21623XXSP,2013-01-03 13:40:00,
2013-01-03 08:41:00,15.6,9.7,29.69,SSW,202,4.7,7.2,77,0.00,,,0.00,WUHU21623XXSP,2013-01-03 13:41:00,
2013-01-03 08:44:00,15.6,9.7,29.69,SSW,202,0.0,4.7,77,0.00,,,0.00,WUHU21623XXSP,2013-01-03 13:44:00,
2013-01-03 08:45:00,15.6,9.7,29.69,SW,225,4.0,4.7,77,0.00,,,0.00,WUHU21623XXSP,2013-01-03 13:45:00,
2013-01-03 08:46:00,15.6,9.7,29.69,SW,225,4.0,4.7,77,0.00,,,0.00,WUHU21623XXSP,2013-01-03 13:46:00,
2013-01-03 08:49:00,16.0,10.0,29.69,WSW,247,2.5,4.7,77,0.00,,,0.00,WUHU21623XXSP,2013-01-03 13:49:00,
2013-01-03 08:50:00,16.0,10.0,29.69,WSW,247,2.5,4.0,77,0.00,,,0.00,WUHU21623XXSP,2013-01-03 13:50:00,
2013-01-03 08:51:00,16.0,10.0,29.69,SW,225,0.0,4.0,77,0.00,,,0.00,WUHU21623XXSP,2013-01-03 13:51:00,
2013-01-03 08:54:00,16.0,10.0,29.69,WSW,247,0.0,4.0,77,0.00,,,0.00,WUHU21623XXSP,2013-01-03 13:54:00,
2013-01-03 08:55:00,16.2,10.2,29.69,WSW,247,0.0,2.5,77,0.00,,,0.00,WUHU21623XXSP,2013-01-03 13:55:00,
2013-01-03 08:56:00,16.2,10.2,29.69,WSW,247,0.0,2.5,77,0.00,,,0.00,WUHU21623XXSP,2013-01-03 13:56:00,
2013-01-03 08:59:00,16.3,10.0,29.69,SSW,202,0.0,0.0,76,0.00,,,0.00,WUHU21623XXSP,2013-01-03 13:59:00,
2013-01-03 09:00:00,16.3,10.0,29.69,SSW,202,0.0,0.0,76,0.00,,,0.00,WUHU21623XXSP,2013-01-03 14:00:00,
2013-01-03 09:01:00,16.3,10.0,29.69,SSW,202,0.0,0.0,76,0.00,,,0.00,WUHU21623XXSP,2013-01-03 14:01:00,
2013-01-03 09:05:00,16.7,10.4,29.69,SW,225,1.1,1.1,76,0.00,,,0.00,WUHU21623XXSP,2013-01-03 14:05:00,
2013-01-03 09:06:00,16.7,10.4,29.69,SW,225,1.1,1.1,76,0.00,,,0.00,WUHU21623XXSP,2013-01-03 14:06:00,
2013-01-03 09:10:00,16.9,10.4,29.69,SW,225,0.0,1.1,76,0.00,,,0.00,WUHU21623XXSP,2013-01-03 14:10:00,
2013-01-03 09:11:00,16.9,10.5,29.69,WSW,247,4.3,4.3,76,0.00,,,0.00,WUHU21623XXSP,2013-01-03 14:11:00,
2013-01-03 09:12:00,16.9,10.5,29.69,WSW,247,4.3,4.3,76,0.00,,,0.00,WUHU21623XXSP,2013-01-03 14:12:00,
2013-01-03 09:15:00,17.2,10.9,29.69,SW,225,0.0,4.3,76,0.00,,,0.00,WUHU21623XXSP,2013-01-03 14:15:00,
2013-01-03 09:16:00,17.2,10.9,29.69,SW,225,0.0,4.3,76,0.00,,,0.00,WUHU21623XXSP,2013-01-03 14:16:00,
2013-01-03 09:17:00,17.4,10.9,29.69,SW,225,0.0,4.3,76,0.00,,,0.00,WUHU21623XXSP,2013-01-03 14:17:00,
2013-01-03 09:20:00,17.4,11.0,29.69,SW,225,3.4,4.3,76,0.00,,,0.00,WUHU21623XXSP,2013-01-03 14:20:00,
2013-01-03 09:21:00,17.8,11.4,29.69,SSW,202,4.3,4.3,76,0.00,,,0.00,WUHU21623XXSP,2013-01-03 14:21:00,
2013-01-03 09:22:00,17.8,11.4,29.69,SSW,202,4.3,4.3,76,0.00,,,0.00,WUHU21623XXSP,2013-01-03 14:22:00,
2013-01-03 09:25:00,17.8,11.1,29.69,SW,225,0.0,4.3,75,0.00,,,0.00,WUHU21623XXSP,2013-01-03 14:25:00,
2013-01-03 09:26:00,18.0,11.1,29.69,SW,225,0.0,4.3,75,0.00,,,0.00,WUHU21623XXSP,2013-01-03 14:26:00,
2013-01-03 09:27:00,18.0,11.1,29.69,SW,225,0.0,4.3,75,0.00,,,0.00,WUHU21623XXSP,2013-01-03 14:27:00,
2013-01-03 09:30:00,18.1,11.4,29.69,SW,225,0.0,4.3,75,0.00,,,0.00,WUHU21623XXSP,2013-01-03 14:30:00,
2013-01-03 09:31:00,18.1,11.4,29.69,SW,225,0.0,2.0,75,0.00,,,0.00,WUHU21623XXSP,2013-01-03 14:31:00,
2013-01-03 09:32:00,18.3,11.6,29.69,SSW,202,0.0,2.0,75,0.00,,,0.00,WUHU21623XXSP,2013-01-03 14:32:00,
2013-01-03 09:35:00,18.3,11.6,29.70,SW,225,0.0,2.0,75,0.00,,,0.00,WUHU21623XXSP,2013-01-03 14:35:00,
2013-01-03 09:37:00,18.5,11.8,29.69,WSW,247,6.3,6.3,75,0.00,,,0.00,WUHU21623XXSP,2013-01-03 14:37:00,
2013-01-03 09:40:00,18.7,12.0,29.69,SW,225,0.0,6.3,75,0.00,,,0.00,WUHU21623XXSP,2013-01-03 14:40:00,
2013-01-03 09:42:00,19.0,12.3,29.69,SW,225,0.0,6.3,75,0.00,,,0.00,WUHU21623XXSP,2013-01-03 14:42:00,
2013-01-03 09:45:00,19.2,12.5,29.69,SSW,202,0.0,6.3,75,0.00,,,0.00,WUHU21623XXSP,2013-01-03 14:45:00,
2013-01-03 09:47:00,19.4,12.6,29.70,SW,225,0.0,0.0,75,0.00,,,0.00,WUHU21623XXSP,2013-01-03 14:47:00,
2013-01-03 09:48:00,19.4,12.6,29.70,SW,225,0.0,0.0,75,0.00,,,0.00,WUHU21623XXSP,2013-01-03 14:48:00,
2013-01-03 09:50:00,19.6,12.5,29.70,SSW,202,0.0,0.0,74,0.00,,,0.00,WUHU21623XXSP,2013-01-03 14:50:00,
2013-01-03 09:52:00,19.8,12.7,29.70,SSW,202,0.0,0.0,74,0.00,,,0.00,WUHU21623XXSP,2013-01-03 14:52:00,
2013-01-03 09:53:00,19.8,12.7,29.70,SSW,202,0.0,0.0,74,0.00,,,0.00,WUHU21623XXSP,2013-01-03 14:53:00,
2013-01-03 09:55:00,19.9,12.9,29.70,SSW,202,0.0,3.4,74,0.00,,,0.00,WUHU21623XXSP,2013-01-03 14:55:00,
2013-01-03 09:57:00,19.9,12.9,29.70,SSW,202,0.0,3.4,74,0.00,,,0.00,WUHU21623XXSP,2013-01-03 14:57:00,
2013-01-03 09:58:00,20.1,13.1,29.69,SSW,202,0.0,3.4,74,0.00,,,0.00,WUHU21623XXSP,2013-01-03 14:58:00,
2013-01-03 10:00:00,20.5,13.1,29.70,SW,225,0.0,3.4,74,0.00,,,0.00,WUHU21623XXSP,2013-01-03 15:00:00,
2013-01-03 10:02:00,20.5,13.4,29.69,SW,225,2.9,3.4,74,0.00,,,0.00,WUHU21623XXSP,2013-01-03 15:02:00,
2013-01-03 10:03:00,20.5,13.4,29.69,SW,225,2.9,2.9,74,0.00,,,0.00,WUHU21623XXSP,2013-01-03 15:03:00,
2013-01-03 10:06:00,20.8,13.5,29.70,SW,225,2.7,2.9,73,0.00,,,0.00,WUHU21623XXSP,2013-01-03 15:06:00,
2013-01-03 10:08:00,21.0,13.7,29.70,SW,225,4.9,4.9,73,0.00,,,0.00,WUHU21623XXSP,2013-01-03 15:08:00,
2013-01-03 10:11:00,21.4,14.0,29.70,WSW,247,4.5,4.9,73,0.00,,,0.00,WUHU21623XXSP,2013-01-03 15:11:00,
2013-01-03 10:13:00,21.6,14.2,29.70,WSW,247,0.0,4.9,73,0.00,,,0.00,WUHU21623XXSP,2013-01-03 15:13:00,
2013-01-03 10:14:00,21.6,14.2,29.70,WSW,247,0.0,4.9,73,0.00,,,0.00,WUHU21623XXSP,2013-01-03 15:14:00,
2013-01-03 10:17:00,21.7,14.1,29.70,SW,225,3.6,4.9,72,0.00,,,0.00,WUHU21623XXSP,2013-01-03 15:17:00,
2013-01-03 10:18:00,21.7,14.1,29.70,SW,225,3.6,4.9,72,0.00,,,0.00,WUHU21623XXSP,2013-01-03 15:18:00,
2013-01-03 10:19:00,21.9,14.3,29.70,SSW,202,6.5,6.5,72,0.00,,,0.00,WUHU21623XXSP,2013-01-03 15:19:00,
2013-01-03 10:23:00,21.9,14.3,29.70,South,180,0.0,6.5,72,0.00,,,0.00,WUHU21623XXSP,2013-01-03 15:23:00,
2013-01-03 10:24:00,21.9,14.3,29.70,South,180,0.0,6.5,72,0.00,,,0.00,WUHU21623XXSP,2013-01-03 15:24:00,
2013-01-03 10:28:00,22.6,15.0,29.70,SSW,202,3.8,6.5,72,0.00,,,0.00,WUHU21623XXSP,2013-01-03 15:28:00,
2013-01-03 10:29:00,22.6,15.0,29.70,SSW,202,3.8,3.8,72,0.00,,,0.00,WUHU21623XXSP,2013-01-03 15:29:00,
2013-01-03 10:33:00,23.2,15.2,29.70,SW,225,2.2,3.8,71,0.00,,,0.00,WUHU21623XXSP,2013-01-03 15:33:00,
2013-01-03 10:34:00,23.5,15.5,29.70,SW,225,5.1,5.1,71,0.00,,,0.00,WUHU21623XXSP,2013-01-03 15:34:00,
2013-01-03 10:38:00,23.7,15.7,29.70,SW,225,0.0,5.1,71,0.00,,,0.00,WUHU21623XXSP,2013-01-03 15:38:00,
2013-01-03 10:39:00,23.7,15.7,29.70,SW,225,0.0,5.1,71,0.00,,,0.00,WUHU21623XXSP,2013-01-03 15:39:00,
2013-01-03 10:43:00,23.7,15.4,29.70,SSW,202,6.5,6.5,70,0.00,,,0.00,WUHU21623XXSP,2013-01-03 15:43:00,
2013-01-03 10:44:00,23.7,15.4,29.70,SSW,202,6.5,6.5,70,0.00,,,0.00,WUHU21623XXSP,2013-01-03 15:44:00,
2013-01-03 10:48:00,23.7,15.4,29.71,SW,225,0.9,6.5,70,0.00,,,0.00,WUHU21623XXSP,2013-01-03 15:48:00,
2013-01-03 10:49:00,23.9,15.2,29.71,SSW,202,0.0,6.5,69,0.00,,,0.00,WUHU21623XXSP,2013-01-03 15:49:00,
2013-01-03 10:50:00,23.9,15.2,29.71,SSW,202,0.0,6.5,69,0.00,,,0.00,WUHU21623XXSP,2013-01-03 15:50:00,
2013-01-03 10:54:00,24.1,15.3,29.70,South,180,6.5,6.5,69,0.00,,,0.00,WUHU21623XXSP,2013-01-03 15:54:00,
2013-01-03 10:55:00,24.1,15.3,29.70,South,180,6.5,6.5,69,0.00,,,0.00,WUHU21623XXSP,2013-01-03 15:55:00,
2013-01-03 10:59:00,24.4,16.0,29.70,SSW,202,0.0,6.5,70,0.00,,,0.00,WUHU21623XXSP,2013-01-03 15:59:00,
2013-01-03 11:00:00,24.8,16.0,29.70,SSW,202,0.0,6.5,70,0.00,,,0.00,WUHU21623XXSP,2013-01-03 16:00:00,
2013-01-03 11:04:00,25.2,16.7,29.70,SSW,202,0.0,6.5,70,0.00,,,0.00,WUHU21623XXSP,2013-01-03 16:04:00,
2013-01-03 11:05:00,25.5,17.1,29.70,SSW,202,0.0,6.5,70,0.00,,,0.00,WUHU21623XXSP,2013-01-03 16:05:00,
2013-01-03 11:09:00,26.2,16.9,29.69,SW,225,3.6,3.6,69,0.00,,,0.00,WUHU21623XXSP,2013-01-03 16:09:00,
2013-01-03 11:10:00,26.2,16.9,29.69,SW,225,3.6,3.6,69,0.00,,,0.00,WUHU21623XXSP,2013-01-03 16:10:00,
2013-01-03 11:14:00,26.6,17.8,29.70,South,180,8.3,8.3,69,0.00,,,0.00,WUHU21623XXSP,2013-01-03 16:14:00,
2013-01-03 11:15:00,26.8,17.6,29.70,SSW,202,2.7,8.3,68,0.00,,,0.00,WUHU21623XXSP,2013-01-03 16:15:00,
2013-01-03 11:19:00,27.0,17.8,29.69,SSW,202,2.7,8.3,68,0.00,,,0.00,WUHU21623XXSP,2013-01-03 16:19:00,
2013-01-03 11:20:00,27.0,17.8,29.69,SSW,202,2.7,8.3,68,0.00,,,0.00,WUHU21623XXSP,2013-01-03 16:20:00,
2013-01-03 11:24:00,27.1,18.0,29.69,SW,225,7.2,7.2,68,0.00,,,0.00,WUHU21623XXSP,2013-01-03 16:24:00,
2013-01-03 11:25:00,27.1,18.0,29.69,SW,225,7.2,7.2,68,0.00,,,0.00,WUHU21623XXSP,2013-01-03 16:25:00,
2013-01-03 11:26:00,27.1,18.0,29.69,SW,225,7.2,7.2,68,0.00,,,0.00,WUHU21623XXSP,2013-01-03 16:26:00,
2013-01-03 11:29:00,27.1,18.0,29.69,SSW,202,7.2,7.4,68,0.00,,,0.00,WUHU21623XXSP,2013-01-03 16:29:00,
2013-01-03 11:30:00,27.1,18.0,29.69,SSW,202,5.8,7.4,68,0.00,,,0.00,WUHU21623XXSP,2013-01-03 16:30:00,
2013-01-03 11:31:00,27.1,18.0,29.69,SSW,202,5.8,7.4,68,0.00,,,0.00,WUHU21623XXSP,2013-01-03 16:31:00,
2013-01-03 11:35:00,26.8,17.8,29.69,SSW,202,5.8,7.4,68,0.00,,,0.00,WUHU21623XXSP,2013-01-03 16:35:00,
2013-01-03 11:36:00,26.8,17.6,29.69,SSW,202,5.8,7.4,68,0.00,,,0.00,WUHU21623XXSP,2013-01-03 16:36:00,
2013-01-03 11:40:00,26.6,17.4,29.69,SW,225,8.1,8.1,68,0.00,,,0.00,WUHU21623XXSP,2013-01-03 16:40:00,
2013-01-03 11:41:00,26.6,17.4,29.69,SW,225,2.7,8.1,68,0.00,,,0.00,WUHU21623XXSP,2013-01-03 16:41:00,
2013-01-03 11:45:00,26.8,18.0,29.69,SW,225,7.6,8.1,69,0.00,,,0.00,WUHU21623XXSP,2013-01-03 16:45:00,
2013-01-03 11:46:00,26.8,18.0,29.69,SW,225,7.6,8.1,69,0.00,,,0.00,WUHU21623XXSP,2013-01-03 16:46:00,
2013-01-03 11:50:00,26.8,18.0,29.69,SW,225,8.5,9.2,69,0.00,,,0.00,WUHU21623XXSP,2013-01-03 16:50:00,
2013-01-03 11:51:00,26.8,18.0,29.69,SW,225,7.2,9.2,69,0.00,,,0.00,WUHU21623XXSP,2013-01-03 16:51:00,
2013-01-03 11:55:00,26.8,18.0,29.69,SW,225,7.2,9.2,69,0.00,,,0.00,WUHU21623XXSP,2013-01-03 16:55:00,
2013-01-03 11:57:00,26.8,18.0,29.69,SSW,202,0.0,9.2,69,0.00,,,0.00,WUHU21623XXSP,2013-01-03 16:57:00,
2013-01-03 12:00:00,27.0,18.1,29.69,SW,225,6.5,7.8,69,0.00,,,0.00,WUHU21623XXSP,2013-01-03 17:00:00,
2013-01-03 12:02:00,27.1,18.3,29.69,SW,225,9.2,9.2,69,0.00,,,0.00,WUHU21623XXSP,2013-01-03 17:02:00,
2013-01-03 12:05:00,27.1,18.3,29.68,SW,225,9.2,9.2,69,0.00,,,0.00,WUHU21623XXSP,2013-01-03 17:05:00,
2013-01-03 12:06:00,27.1,18.3,29.69,SW,225,7.6,9.2,69,0.00,,,0.00,WUHU21623XXSP,2013-01-03 17:06:00,
2013-01-03 12:07:00,27.1,18.3,29.69,SW,225,7.6,9.2,69,0.00,,,0.00,WUHU21623XXSP,2013-01-03 17:07:00,
2013-01-03 12:08:00,27.1,18.3,29.69,SW,225,7.6,9.2,69,0.00,,,0.00,WUHU21623XXSP,2013-01-03 17:08:00,
2013-01-03 12:10:00,27.3,18.5,29.68,South,180,4.0,9.2,69,0.00,,,0.00,WUHU21623XXSP,2013-01-03 17:10:00,
2013-01-03 12:11:00,27.3,18.5,29.68,South,180,4.0,9.2,69,0.00,,,0.00,WUHU21623XXSP,2013-01-03 17:11:00,
2013-01-03 12:12:00,27.1,18.3,29.68,SW,225,3.1,9.2,69,0.00,,,0.00,WUHU21623XXSP,2013-01-03 17:12:00,
2013-01-03 12:13:00,27.1,18.3,29.68,SW,225,3.1,9.2,69,0.00,,,0.00,WUHU21623XXSP,2013-01-03 17:13:00,
2013-01-03 12:15:00,27.3,18.5,29.68,SSW,202,3.8,7.6,69,0.00,,,0.00,WUHU21623XXSP,2013-01-03 17:15:00,
2013-01-03 12:17:00,27.3,18.5,29.68,SSW,202,3.8,7.6,69,0.00,,,0.00,WUHU21623XXSP,2013-01-03 17:17:00,
2013-01-03 12:18:00,27.3,18.5,29.68,SSW,202,3.8,4.0,69,0.00,,,0.00,WUHU21623XXSP,2013-01-03 17:18:00,
2013-01-03 12:21:00,27.5,18.5,29.68,South,180,8.7,8.7,69,0.00,,,0.00,WUHU21623XXSP,2013-01-03 17:21:00,
2013-01-03 12:22:00,27.5,18.5,29.68,South,180,8.7,8.7,69,0.00,,,0.00,WUHU21623XXSP,2013-01-03 17:22:00,
2013-01-03 12:24:00,27.5,18.7,29.68,SSW,202,0.0,8.7,69,0.00,,,0.00,WUHU21623XXSP,2013-01-03 17:24:00,
2013-01-03 12:26:00,27.7,18.9,29.68,SSW,202,0.0,8.7,69,0.00,,,0.00,WUHU21623XXSP,2013-01-03 17:26:00,
2013-01-03 12:27:00,27.7,18.9,29.68,SSW,202,0.0,8.7,69,0.00,,,0.00,WUHU21623XXSP,2013-01-03 17:27:00,
2013-01-03 12:29:00,27.7,18.9,29.68,SSW,202,7.8,8.7,69,0.00,,,0.00,WUHU21623XXSP,2013-01-03 17:29:00,
2013-01-03 12:32:00,27.7,18.9,29.68,South,180,6.0,7.8,69,0.00,,,0.00,WUHU21623XXSP,2013-01-03 17:32:00,
2013-01-03 12:33:00,27.7,18.9,29.68,SW,225,8.7,8.7,69,0.00,,,0.00,WUHU21623XXSP,2013-01-03 17:33:00,
2013-01-03 12:34:00,27.7,18.9,29.67,SW,225,4.3,8.7,69,0.00,,,0.00,WUHU21623XXSP,2013-01-03 17:34:00,
2013-01-03 12:37:00,27.7,18.9,29.67,SSW,202,5.4,8.7,69,0.00,,,0.00,WUHU21623XXSP,2013-01-03 17:37:00,
2013-01-03 12:38:00,27.7,18.9,29.68,SSW,202,5.4,8.7,69,0.00,,,0.00,WUHU21623XXSP,2013-01-03 17:38:00,
2013-01-03 12:40:00,27.7,18.9,29.68,SSW,202,5.4,8.7,69,0.00,,,0.00,WUHU21623XXSP,2013-01-03 17:40:00,
2013-01-03 12:42:00,27.7,18.9,29.67,SSW,202,6.5,8.7,69,0.00,,,0.00,WUHU21623XXSP,2013-01-03 17:42:00,
2013-01-03 12:43:00,27.7,18.9,29.67,SSW,202,6.5,6.5,69,0.00,,,0.00,WUHU21623XXSP,2013-01-03 17:43:00,
2013-01-03 12:45:00,27.5,18.7,29.67,SW,225,7.8,7.8,69,0.00,,,0.00,WUHU21623XXSP,2013-01-03 17:45:00,
2013-01-03 12:47:00,27.7,18.9,29.67,WSW,247,8.3,8.3,69,0.00,,,0.00,WUHU21623XXSP,2013-01-03 17:47:00,
2013-01-03 12:48:00,27.7,18.9,29.67,WSW,247,8.3,8.3,69,0.00,,,0.00,WUHU21623XXSP,2013-01-03 17:48:00,
2013-01-03 12:50:00,27.7,18.9,29.67,SSW,202,8.7,8.7,69,0.00,,,0.00,WUHU21623XXSP,2013-01-03 17:50:00,
2013-01-03 12:53:00,27.7,18.9,29.67,WSW,247,6.9,8.7,69,0.00,,,0.00,WUHU21623XXSP,2013-01-03 17:53:00,
2013-01-03 12:54:00,27.7,18.9,29.67,SSW,202,5.6,8.7,69,0.00,,,0.00,WUHU21623XXSP,2013-01-03 17:54:00,
2013-01-03 12:56:00,27.7,18.9,29.67,SSW,202,6.7,8.7,69,0.00,,,0.00,WUHU21623XXSP,2013-01-03 17:56:00,
2013-01-03 12:58:00,27.7,18.9,29.67,SW,225,5.6,8.7,69,0.00,,,0.00,WUHU21623XXSP,2013-01-03 17:58:00,
2013-01-03 12:59:00,27.7,18.9,29.67,SW,225,5.6,8.7,69,0.00,,,0.00,WUHU21623XXSP,2013-01-03 17:59:00,
2013-01-03 13:01:00,27.7,18.9,29.67,SW,225,5.6,6.7,70,0.00,,,0.00,WUHU21623XXSP,2013-01-03 18:01:00,
2013-01-03 13:03:00,27.7,19.2,29.67,SW,225,5.6,6.7,70,0.00,,,0.00,WUHU21623XXSP,2013-01-03 18:03:00,
2013-01-03 13:04:00,27.7,19.2,29.67,SSW,202,6.5,6.7,70,0.00,,,0.00,WUHU21623XXSP,2013-01-03 18:04:00,
2013-01-03 13:06:00,27.7,19.2,29.67,SW,225,5.1,6.5,70,0.00,,,0.00,WUHU21623XXSP,2013-01-03 18:06:00,
2013-01-03 13:08:00,27.7,19.2,29.67,SW,225,5.1,6.5,70,0.00,,,0.00,WUHU21623XXSP,2013-01-03 18:08:00,
2013-01-03 13:09:00,27.7,19.2,29.67,SW,225,5.1,6.5,70,0.00,,,0.00,WUHU21623XXSP,2013-01-03 18:09:00,
2013-01-03 13:10:00,27.7,19.2,29.67,SW,225,5.1,6.5,70,0.00,,,0.00,WUHU21623XXSP,2013-01-03 18:10:00,
2013-01-03 13:12:00,27.7,19.2,29.67,South,180,7.8,7.8,70,0.00,,,0.00,WUHU21623XXSP,2013-01-03 18:12:00,
2013-01-03 13:13:00,27.7,19.2,29.67,SSW,202,7.4,7.8,70,0.00,,,0.00,WUHU21623XXSP,2013-01-03 18:13:00,
2013-01-03 13:15:00,27.7,19.5,29.66,SW,225,7.4,7.8,71,0.00,,,0.00,WUHU21623XXSP,2013-01-03 18:15:00,
2013-01-03 13:16:00,27.7,19.5,29.66,SW,225,7.4,7.8,71,0.00,,,0.00,WUHU21623XXSP,2013-01-03 18:16:00,
2013-01-03 13:17:00,27.7,19.5,29.67,SSW,202,7.4,7.8,71,0.00,,,0.00,WUHU21623XXSP,2013-01-03 18:17:00,
2013-01-03 13:18:00,27.7,19.5,29.67,SSW,202,7.4,7.8,71,0.00,,,0.00,WUHU21623XXSP,2013-01-03 18:18:00,
2013-01-03 13:20:00,27.7,19.5,29.66,SSW,202,6.0,7.8,71,0.00,,,0.00,WUHU21623XXSP,2013-01-03 18:20:00,
2013-01-03 13:21:00,27.7,19.5,29.66,SSW,202,3.4,7.4,71,0.00,,,0.00,WUHU21623XXSP,2013-01-03 18:21:00,
2013-01-03 13:22:00,27.7,19.5,29.66,SSW,202,3.4,7.4,71,0.00,,,0.00,WUHU21623XXSP,2013-01-03 18:22:00,
2013-01-03 13:23:00,27.7,19.5,29.66,WSW,247,6.7,7.4,71,0.00,,,0.00,WUHU21623XXSP,2013-01-03 18:23:00,
2013-01-03 13:25:00,27.7,19.5,29.66,WSW,247,6.7,7.4,71,0.00,,,0.00,WUHU21623XXSP,2013-01-03 18:25:00,
2013-01-03 13:26:00,27.7,19.5,29.66,SW,225,8.3,8.3,71,0.00,,,0.00,WUHU21623XXSP,2013-01-03 18:26:00,
2013-01-03 13:27:00,27.7,19.5,29.66,SW,225,8.3,8.3,71,0.00,,,0.00,WUHU21623XXSP,2013-01-03 18:27:00,
2013-01-03 13:29:00,27.7,19.5,29.67,SW,225,8.3,8.3,71,0.00,,,0.00,WUHU21623XXSP,2013-01-03 18:29:00,
2013-01-03 13:30:00,27.7,19.5,29.67,SW,225,7.8,8.3,71,0.00,,,0.00,WUHU21623XXSP,2013-01-03 18:30:00,
2013-01-03 13:32:00,27.7,19.5,29.67,SW,225,6.7,8.3,71,0.00,,,0.00,WUHU21623XXSP,2013-01-03 18:32:00,
2013-01-03 13:34:00,27.7,19.5,29.67,SW,225,6.7,8.3,71,0.00,,,0.00,WUHU21623XXSP,2013-01-03 18:34:00,
2013-01-03 13:35:00,27.7,19.5,29.66,SW,225,6.7,8.3,71,0.00,,,0.00,WUHU21623XXSP,2013-01-03 18:35:00,
2013-01-03 13:37:00,27.7,19.5,29.66,SW,225,8.7,8.7,71,0.00,,,0.00,WUHU21623XXSP,2013-01-03 18:37:00,
2013-01-03 13:39:00,27.7,19.5,29.66,SW,225,8.7,8.7,71,0.00,,,0.00,WUHU21623XXSP,2013-01-03 18:39:00,
2013-01-03 13:40:00,27.7,19.8,29.66,WSW,247,6.9,8.7,72,0.00,,,0.00,WUHU21623XXSP,2013-01-03 18:40:00,
2013-01-03 13:42:00,27.7,19.8,29.66,WSW,247,6.9,8.7,72,0.00,,,0.00,WUHU21623XXSP,2013-01-03 18:42:00,
2013-01-03 13:43:00,27.7,19.8,29.67,WSW,247,6.9,8.7,72,0.00,,,0.00,WUHU21623XXSP,2013-01-03 18:43:00,
2013-01-03 13:44:00,27.7,19.8,29.67,WSW,247,6.9,8.7,72,0.00,,,0.00,WUHU21623XXSP,2013-01-03 18:44:00,
2013-01-03 13:45:00,27.7,19.8,29.67,SSW,202,3.1,8.7,72,0.00,,,0.00,WUHU21623XXSP,2013-01-03 18:45:00,
2013-01-03 13:47:00,27.7,19.8,29.67,WSW,247,4.9,6.9,72,0.00,,,0.00,WUHU21623XXSP,2013-01-03 18:47:00,
2013-01-03 13:48:00,27.7,19.8,29.67,WSW,247,4.9,6.9,72,0.00,,,0.00,WUHU21623XXSP,2013-01-03 18:48:00,
2013-01-03 13:49:00,27.7,19.8,29.67,WSW,247,4.9,6.9,72,0.00,,,0.00,WUHU21623XXSP,2013-01-03 18:49:00,
2013-01-03 13:51:00,27.7,19.8,29.67,WSW,247,4.9,6.9,72,0.00,,,0.00,WUHU21623XXSP,2013-01-03 18:51:00,
2013-01-03 13:52:00,27.7,19.8,29.67,WSW,247,4.9,6.9,73,0.00,,,0.00,WUHU21623XXSP,2013-01-03 18:52:00,
2013-01-03 13:53:00,27.7,20.1,29.67,SSW,202,8.1,8.1,73,0.00,,,0.00,WUHU21623XXSP,2013-01-03 18:53:00,
2013-01-03 13:54:00,27.7,20.1,29.67,SSW,202,8.1,8.1,73,0.00,,,0.00,WUHU21623XXSP,2013-01-03 18:54:00,
2013-01-03 13:56:00,28.0,20.5,29.67,SW,225,2.0,8.1,73,0.00,,,0.00,WUHU21623XXSP,2013-01-03 18:56:00,
2013-01-03 13:57:00,28.0,20.5,29.66,SW,225,8.3,8.3,73,0.00,,,0.00,WUHU21623XXSP,2013-01-03 18:57:00,
2013-01-03 13:58:00,28.0,20.5,29.66,SW,225,8.3,8.3,73,0.00,,,0.00,WUHU21623XXSP,2013-01-03 18:58:00,
2013-01-03 13:59:00,28.0,20.5,29.66,SW,225,8.3,8.3,73,0.00,,,0.00,WUHU21623XXSP,2013-01-03 18:59:00,
2013-01-03 14:01:00,28.0,20.5,29.66,SW,225,8.3,8.3,73,0.00,,,0.00,WUHU21623XXSP,2013-01-03 19:01:00,
2013-01-03 14:02:00,28.0,20.5,29.66,SSW,202,1.8,8.3,73,0.00,,,0.00,WUHU21623XXSP,2013-01-03 19:02:00,
2013-01-03 14:03:00,28.0,20.5,29.66,SSW,202,1.8,8.3,73,0.00,,,0.00,WUHU21623XXSP,2013-01-03 19:03:00,
2013-01-03 14:04:00,28.2,20.7,29.66,SW,225,9.6,9.6,73,0.00,,,0.00,WUHU21623XXSP,2013-01-03 19:04:00,
2013-01-03 14:06:00,28.2,20.7,29.66,SW,225,9.6,9.6,73,0.00,,,0.00,WUHU21623XXSP,2013-01-03 19:06:00,
2013-01-03 14:07:00,28.2,20.7,29.66,SW,225,9.6,9.6,73,0.00,,,0.00,WUHU21623XXSP,2013-01-03 19:07:00,
2013-01-03 14:08:00,28.2,20.7,29.66,SW,225,9.6,9.6,74,0.00,,,0.00,WUHU21623XXSP,2013-01-03 19:08:00,
2013-01-03 14:10:00,28.2,20.7,29.66,SW,225,9.6,9.6,74,0.00,,,0.00,WUHU21623XXSP,2013-01-03 19:10:00,
2013-01-03 14:11:00,28.2,21.0,29.66,SW,225,9.2,9.6,74,0.00,,,0.00,WUHU21623XXSP,2013-01-03 19:11:00,
2013-01-03 14:13:00,28.6,21.0,29.67,SW,225,2.7,9.6,74,0.00,,,0.00,WUHU21623XXSP,2013-01-03 19:13:00,
2013-01-03 14:14:00,28.6,21.0,29.67,SW,225,2.7,9.6,74,0.00,,,0.00,WUHU21623XXSP,2013-01-03 19:14:00,
2013-01-03 14:15:00,28.6,21.3,29.66,SW,225,7.8,9.6,74,0.00,,,0.00,WUHU21623XXSP,2013-01-03 19:15:00,
2013-01-03 14:16:00,28.6,21.3,29.66,SW,225,7.8,9.6,74,0.00,,,0.00,WUHU21623XXSP,2013-01-03 19:16:00,
2013-01-03 14:18:00,28.6,21.3,29.66,SW,225,7.8,9.2,74,0.00,,,0.00,WUHU21623XXSP,2013-01-03 19:18:00,
2013-01-03 14:54:00,29.1,22.2,29.67,WSW,247,9.6,13.9,75,0.00,,,0.00,WUHU21623XXSP,2013-01-03 19:54:00,
2013-01-03 14:55:00,28.9,22.0,29.67,WSW,247,2.5,13.9,75,0.00,,,0.00,WUHU21623XXSP,2013-01-03 19:55:00,
2013-01-03 14:56:00,28.9,22.0,29.67,WSW,247,2.5,13.9,75,0.00,,,0.00,WUHU21623XXSP,2013-01-03 19:56:00,
2013-01-03 14:59:00,28.9,22.0,29.67,WSW,247,2.5,9.6,75,0.00,,,0.00,WUHU21623XXSP,2013-01-03 19:59:00,
2013-01-03 15:00:00,28.9,22.0,29.67,WSW,247,11.4,11.4,76,0.00,,,0.00,WUHU21623XXSP,2013-01-03 20:00:00,
2013-01-03 15:01:00,28.9,22.0,29.67,WSW,247,11.4,11.4,76,0.00,,,0.00,WUHU21623XXSP,2013-01-03 20:01:00,
2013-01-03 15:04:00,28.9,22.3,29.67,SW,225,10.3,11.4,76,0.00,,,0.00,WUHU21623XXSP,2013-01-03 20:04:00,
2013-01-03 15:05:00,28.9,22.3,29.67,SSW,202,8.3,11.4,76,0.00,,,0.00,WUHU21623XXSP,2013-01-03 20:05:00,
2013-01-03 15:06:00,28.8,22.1,29.67,WSW,247,6.0,11.4,76,0.00,,,0.00,WUHU21623XXSP,2013-01-03 20:06:00,
2013-01-03 15:09:00,28.6,22.1,29.67,WSW,247,6.0,11.4,76,0.00,,,0.00,WUHU21623XXSP,2013-01-03 20:09:00,
2013-01-03 15:10:00,28.6,22.1,29.67,WSW,247,6.0,10.3,76,0.00,,,0.00,WUHU21623XXSP,2013-01-03 20:10:00,
2013-01-03 15:11:00,28.8,21.9,29.68,WSW,247,6.0,10.3,76,0.00,,,0.00,WUHU21623XXSP,2013-01-03 20:11:00,
2013-01-03 15:14:00,28.6,22.1,29.68,WSW,247,6.0,8.3,76,0.00,,,0.00,WUHU21623XXSP,2013-01-03 20:14:00,
2013-01-03 15:15:00,28.6,21.9,29.68,WSW,247,8.1,8.1,76,0.00,,,0.00,WUHU21623XXSP,2013-01-03 20:15:00,
2013-01-03 15:16:00,28.6,21.9,29.68,WSW,247,8.1,8.1,76,0.00,,,0.00,WUHU21623XXSP,2013-01-03 20:16:00,
2013-01-03 15:19:00,28.6,22.2,29.68,WSW,247,8.7,8.7,77,0.00,,,0.00,WUHU21623XXSP,2013-01-03 20:19:00,
2013-01-03 15:20:00,28.6,22.2,29.68,WSW,247,8.7,8.7,77,0.00,,,0.00,WUHU21623XXSP,2013-01-03 20:20:00,
2013-01-03 15:21:00,28.6,22.2,29.68,WSW,247,8.7,8.7,77,0.00,,,0.00,WUHU21623XXSP,2013-01-03 20:21:00,
2013-01-03 15:24:00,28.6,22.2,29.68,SW,225,6.7,10.3,77,0.00,,,0.00,WUHU21623XXSP,2013-01-03 20:24:00,
2013-01-03 15:25:00,28.6,22.2,29.68,SW,225,6.7,10.3,77,0.00,,,0.00,WUHU21623XXSP,2013-01-03 20:25:00,
2013-01-03 15:26:00,28.6,22.2,29.68,SW,225,6.9,10.3,77,0.00,,,0.00,WUHU21623XXSP,2013-01-03 20:26:00,
2013-01-03 15:27:00,28.6,22.2,29.68,SW,225,6.9,10.3,77,0.00,,,0.00,WUHU21623XXSP,2013-01-03 20:27:00,
2013-01-03 15:29:00,28.6,22.2,29.68,WSW,247,4.9,10.3,77,0.00,,,0.00,WUHU21623XXSP,2013-01-03 20:29:00,
2013-01-03 15:30:00,28.6,22.2,29.68,WSW,247,7.8,10.3,77,0.00,,,0.00,WUHU21623XXSP,2013-01-03 20:30:00,
2013-01-03 15:31:00,28.6,22.2,29.68,WSW,247,7.8,7.8,77,0.00,,,0.00,WUHU21623XXSP,2013-01-03 20:31:00,
2013-01-03 15:32:00,28.4,22.1,29.68,SW,225,9.4,9.4,77,0.00,,,0.00,WUHU21623XXSP,2013-01-03 20:32:00,
2013-01-03 15:34:00,28.6,22.2,29.68,SW,225,11.9,11.9,77,0.00,,,0.00,WUHU21623XXSP,2013-01-03 20:34:00,
2013-01-03 15:35:00,28.6,22.2,29.68,SW,225,11.9,11.9,77,0.00,,,0.00,WUHU21623XXSP,2013-01-03 20:35:00,
2013-01-03 15:36:00,28.2,22.2,29.69,SW,225,11.9,11.9,77,0.00,,,0.00,WUHU21623XXSP,2013-01-03 20:36:00,
2013-01-03 15:37:00,28.2,22.2,29.69,SW,225,11.9,11.9,77,0.00,,,0.00,WUHU21623XXSP,2013-01-03 20:37:00,
2013-01-03 15:39:00,28.2,21.9,29.69,SW,225,11.9,11.9,77,0.00,,,0.00,WUHU21623XXSP,2013-01-03 20:39:00,
2013-01-03 15:41:00,28.2,21.9,29.69,WSW,247,7.4,11.9,77,0.00,,,0.00,WUHU21623XXSP,2013-01-03 20:41:00,
2013-01-03 15:42:00,28.2,21.9,29.69,WSW,247,7.4,11.9,77,0.00,,,0.00,WUHU21623XXSP,2013-01-03 20:42:00,
2013-01-03 15:45:00,28.2,22.2,29.69,SW,225,6.7,11.9,78,0.00,,,0.00,WUHU21623XXSP,2013-01-03 20:45:00,
2013-01-03 15:46:00,28.2,22.2,29.69,SW,225,6.7,11.9,78,0.00,,,0.00,WUHU21623XXSP,2013-01-03 20:46:00,
2013-01-03 15:47:00,28.2,22.2,29.69,SW,225,6.7,11.9,78,0.00,,,0.00,WUHU21623XXSP,2013-01-03 20:47:00,
2013-01-03 15:50:00,28.0,22.0,29.69,SW,225,7.2,7.4,78,0.00,,,0.00,WUHU21623XXSP,2013-01-03 20:50:00,
2013-01-03 15:51:00,28.0,22.0,29.69,WSW,247,4.5,7.2,78,0.00,,,0.00,WUHU21623XXSP,2013-01-03 20:51:00,
2013-01-03 15:52:00,28.0,22.0,29.69,WSW,247,4.5,7.2,78,0.00,,,0.00,WUHU21623XXSP,2013-01-03 20:52:00,
2013-01-03 15:55:00,28.0,22.0,29.69,WSW,247,4.5,7.2,78,0.00,,,0.00,WUHU21623XXSP,2013-01-03 20:55:00,
2013-01-03 15:56:00,28.0,22.0,29.69,SW,225,4.9,7.2,78,0.00,,,0.00,WUHU21623XXSP,2013-01-03 20:56:00,
2013-01-03 15:57:00,28.0,22.0,29.69,SW,225,4.9,7.2,78,0.00,,,0.00,WUHU21623XXSP,2013-01-03 20:57:00,
2013-01-03 15:58:00,28.0,22.0,29.69,SW,225,7.8,7.8,78,0.00,,,0.00,WUHU21623XXSP,2013-01-03 20:58:00,
2013-01-03 16:00:00,28.0,22.3,29.69,SW,225,7.8,7.8,79,0.00,,,0.00,WUHU21623XXSP,2013-01-03 21:00:00,
2013-01-03 16:01:00,28.0,22.3,29.69,SW,225,7.8,7.8,79,0.00,,,0.00,WUHU21623XXSP,2013-01-03 21:01:00,
2013-01-03 16:02:00,28.0,22.3,29.69,SW,225,7.8,7.8,79,0.00,,,0.00,WUHU21623XXSP,2013-01-03 21:02:00,
2013-01-03 16:03:00,28.0,22.3,29.69,SW,225,7.8,7.8,79,0.00,,,0.00,WUHU21623XXSP,2013-01-03 21:03:00,
2013-01-03 16:05:00,28.0,22.3,29.70,SW,225,0.4,7.8,79,0.00,,,0.00,WUHU21623XXSP,2013-01-03 21:05:00,
2013-01-03 16:07:00,28.0,22.3,29.70,SW,225,4.7,7.8,79,0.00,,,0.00,WUHU21623XXSP,2013-01-03 21:07:00,
2013-01-03 16:08:00,28.0,22.3,29.70,SW,225,4.7,7.8,79,0.00,,,0.00,WUHU21623XXSP,2013-01-03 21:08:00,
2013-01-03 16:10:00,28.0,22.3,29.70,WSW,247,6.9,7.8,79,0.00,,,0.00,WUHU21623XXSP,2013-01-03 21:10:00,
2013-01-03 16:12:00,28.0,22.3,29.70,WSW,247,6.9,7.8,79,0.00,,,0.00,WUHU21623XXSP,2013-01-03 21:12:00,
2013-01-03 16:13:00,28.0,22.3,29.70,WSW,247,6.7,7.8,79,0.00,,,0.00,WUHU21623XXSP,2013-01-03 21:13:00,
2013-01-03 16:16:00,28.0,22.3,29.70,SSW,202,8.7,8.7,79,0.00,,,0.00,WUHU21623XXSP,2013-01-03 21:16:00,
2013-01-03 16:17:00,27.7,22.3,29.70,SSW,202,8.7,8.7,80,0.00,,,0.00,WUHU21623XXSP,2013-01-03 21:17:00,
2013-01-03 16:18:00,27.7,22.3,29.70,SSW,202,8.7,8.7,80,0.00,,,0.00,WUHU21623XXSP,2013-01-03 21:18:00,
2013-01-03 16:21:00,27.7,22.3,29.70,SSW,202,6.9,8.7,80,0.00,,,0.00,WUHU21623XXSP,2013-01-03 21:21:00,
2013-01-03 16:22:00,27.7,22.3,29.70,SSW,202,6.9,8.7,80,0.00,,,0.00,WUHU21623XXSP,2013-01-03 21:22:00,
2013-01-03 16:23:00,27.7,22.3,29.70,SW,225,5.6,8.7,80,0.00,,,0.00,WUHU21623XXSP,2013-01-03 21:23:00,
2013-01-03 16:24:00,27.7,22.3,29.70,SW,225,5.6,8.7,80,0.00,,,0.00,WUHU21623XXSP,2013-01-03 21:24:00,
2013-01-03 16:26:00,27.7,22.3,29.69,South,180,4.0,8.7,80,0.00,,,0.00,WUHU21623XXSP,2013-01-03 21:26:00,
2013-01-03 16:27:00,27.7,22.3,29.70,South,180,4.0,8.7,79,0.00,,,0.00,WUHU21623XXSP,2013-01-03 21:27:00,
2013-01-03 16:29:00,27.7,22.3,29.70,South,180,4.0,8.7,79,0.00,,,0.00,WUHU21623XXSP,2013-01-03 21:29:00,
2013-01-03 16:30:00,27.7,22.3,29.69,SW,225,6.3,6.9,80,0.00,,,0.00,WUHU21623XXSP,2013-01-03 21:30:00,
2013-01-03 16:31:00,27.7,22.3,29.69,SW,225,6.3,6.3,80,0.00,,,0.00,WUHU21623XXSP,2013-01-03 21:31:00,
2013-01-03 16:33:00,27.7,22.0,29.69,SW,225,9.4,9.4,79,0.00,,,0.00,WUHU21623XXSP,2013-01-03 21:33:00,
2013-01-03 16:34:00,27.7,22.3,29.69,SW,225,8.5,9.4,80,0.00,,,0.00,WUHU21623XXSP,2013-01-03 21:34:00,
2013-01-03 16:35:00,27.7,22.3,29.69,SW,225,8.5,9.4,80,0.00,,,0.00,WUHU21623XXSP,2013-01-03 21:35:00,
2013-01-03 16:36:00,27.7,22.3,29.69,SW,225,8.5,9.4,80,0.00,,,0.00,WUHU21623XXSP,2013-01-03 21:36:00,
2013-01-03 16:38:00,27.7,22.3,29.69,SW,225,8.5,9.4,80,0.00,,,0.00,WUHU21623XXSP,2013-01-03 21:38:00,
2013-01-03 16:39:00,27.7,22.3,29.69,SW,225,2.2,9.4,80,0.00,,,0.00,WUHU21623XXSP,2013-01-03 21:39:00,
2013-01-03 16:41:00,27.7,22.3,29.70,SW,225,3.1,9.4,80,0.00,,,0.00,WUHU21623XXSP,2013-01-03 21:41:00,
2013-01-03 16:43:00,27.7,22.3,29.70,SW,225,3.1,8.5,80,0.00,,,0.00,WUHU21623XXSP,2013-01-03 21:43:00,
2013-01-03 16:45:00,27.7,22.3,29.70,SW,225,3.1,8.5,80,0.00,,,0.00,WUHU21623XXSP,2013-01-03 21:45:00,
2013-01-03 16:46:00,27.7,22.3,29.70,SW,225,3.1,3.1,80,0.00,,,0.00,WUHU21623XXSP,2013-01-03 21:46:00,
2013-01-03 16:47:00,27.7,22.3,29.70,SSW,202,4.7,4.7,80,0.00,,,0.00,WUHU21623XXSP,2013-01-03 21:47:00,
2013-01-03 16:49:00,27.7,22.3,29.70,SSW,202,4.7,4.7,80,0.00,,,0.00,WUHU21623XXSP,2013-01-03 21:49:00,
2013-01-03 16:50:00,27.7,22.3,29.70,SSW,202,4.7,4.7,80,0.00,,,0.00,WUHU21623XXSP,2013-01-03 21:50:00,
2013-01-03 16:52:00,27.7,22.3,29.70,SSW,202,4.7,4.7,80,0.00,,,0.00,WUHU21623XXSP,2013-01-03 21:52:00,
2013-01-03 16:54:00,27.7,22.3,29.70,SW,225,0.0,4.7,80,0.00,,,0.00,WUHU21623XXSP,2013-01-03 21:54:00,
2013-01-03 16:55:00,27.7,22.3,29.70,SW,225,7.8,7.8,80,0.00,,,0.00,WUHU21623XXSP,2013-01-03 21:55:00,
2013-01-03 16:57:00,27.7,22.3,29.70,SSW,202,3.8,7.8,80,0.00,,,0.00,WUHU21623XXSP,2013-01-03 21:57:00,
2013-01-03 16:59:00,27.7,22.3,29.70,SSW,202,3.8,7.8,80,0.00,,,0.00,WUHU21623XXSP,2013-01-03 21:59:00,
2013-01-03 17:00:00,27.7,22.3,29.70,SSW,202,3.8,7.8,80,0.00,,,0.00,WUHU21623XXSP,2013-01-03 22:00:00,
2013-01-03 17:03:00,27.7,22.3,29.71,SSW,202,3.8,7.8,80,0.00,,,0.00,WUHU21623XXSP,2013-01-03 22:03:00,
2013-01-03 17:04:00,27.7,22.3,29.70,SW,225,4.9,7.8,80,0.00,,,0.00,WUHU21623XXSP,2013-01-03 22:04:00,
2013-01-03 17:05:00,27.7,22.3,29.70,SW,225,4.9,4.9,80,0.00,,,0.00,WUHU21623XXSP,2013-01-03 22:05:00,
2013-01-03 17:08:00,27.7,22.3,29.71,SSW,202,7.6,7.6,80,0.00,,,0.00,WUHU21623XXSP,2013-01-03 22:08:00,
2013-01-03 17:09:00,27.7,22.3,29.71,SW,225,2.0,7.6,80,0.00,,,0.00,WUHU21623XXSP,2013-01-03 22:09:00,
2013-01-03 17:10:00,27.7,22.3,29.71,SSW,202,6.3,7.6,80,0.00,,,0.00,WUHU21623XXSP,2013-01-03 22:10:00,
2013-01-03 17:13:00,27.7,22.6,29.71,SW,225,0.0,7.6,81,0.00,,,0.00,WUHU21623XXSP,2013-01-03 22:13:00,
2013-01-03 17:15:00,27.7,22.6,29.71,SW,225,5.8,7.6,81,0.00,,,0.00,WUHU21623XXSP,2013-01-03 22:15:00,
2013-01-03 17:16:00,27.7,22.6,29.71,SW,225,5.8,7.6,81,0.00,,,0.00,WUHU21623XXSP,2013-01-03 22:16:00,
2013-01-03 17:18:00,27.7,22.6,29.71,SW,225,7.8,7.8,81,0.00,,,0.00,WUHU21623XXSP,2013-01-03 22:18:00,
2013-01-03 17:20:00,27.7,22.6,29.71,SSW,202,6.0,7.8,81,0.00,,,0.00,WUHU21623XXSP,2013-01-03 22:20:00,
2013-01-03 17:21:00,27.7,22.6,29.71,SW,225,6.0,7.8,81,0.00,,,0.00,WUHU21623XXSP,2013-01-03 22:21:00,
2013-01-03 17:24:00,27.7,22.6,29.71,SW,225,6.0,7.8,81,0.00,,,0.00,WUHU21623XXSP,2013-01-03 22:24:00,
2013-01-03 17:25:00,27.7,22.6,29.71,SW,225,6.0,7.8,81,0.00,,,0.00,WUHU21623XXSP,2013-01-03 22:25:00,
2013-01-03 17:26:00,27.7,22.6,29.71,SSW,202,5.1,7.8,81,0.00,,,0.00,WUHU21623XXSP,2013-01-03 22:26:00,
2013-01-03 17:29:00,27.7,22.6,29.72,SW,225,5.8,6.0,81,0.00,,,0.00,WUHU21623XXSP,2013-01-03 22:29:00,
2013-01-03 17:30:00,27.7,22.6,29.71,SW,225,7.2,7.2,81,0.00,,,0.00,WUHU21623XXSP,2013-01-03 22:30:00,
2013-01-03 17:31:00,27.7,22.6,29.71,SW,225,7.2,7.2,81,0.00,,,0.00,WUHU21623XXSP,2013-01-03 22:31:00,
2013-01-03 17:34:00,27.7,22.6,29.72,SW,225,7.2,7.2,81,0.00,,,0.00,WUHU21623XXSP,2013-01-03 22:34:00,
2013-01-03 17:35:00,27.7,22.6,29.72,SW,225,7.2,7.2,81,0.00,,,0.00,WUHU21623XXSP,2013-01-03 22:35:00,
2013-01-03 17:36:00,27.7,22.6,29.72,SW,225,7.2,7.2,81,0.00,,,0.00,WUHU21623XXSP,2013-01-03 22:36:00,
2013-01-03 17:39:00,27.5,22.4,29.72,SW,225,8.1,8.1,81,0.00,,,0.00,WUHU21623XXSP,2013-01-03 22:39:00,
2013-01-03 17:40:00,27.5,22.4,29.72,SW,225,8.1,8.1,81,0.00,,,0.00,WUHU21623XXSP,2013-01-03 22:40:00,
2013-01-03 17:41:00,27.5,22.4,29.72,SW,225,6.7,8.1,81,0.00,,,0.00,WUHU21623XXSP,2013-01-03 22:41:00,
2013-01-03 17:44:00,27.7,22.6,29.72,SW,225,6.9,8.1,81,0.00,,,0.00,WUHU21623XXSP,2013-01-03 22:44:00,
2013-01-03 17:46:00,27.7,22.9,29.72,SW,225,1.1,8.1,82,0.00,,,0.00,WUHU21623XXSP,2013-01-03 22:46:00,
2013-01-03 17:49:00,27.7,22.9,29.72,SW,225,7.2,7.2,82,0.00,,,0.00,WUHU21623XXSP,2013-01-03 22:49:00,
2013-01-03 17:50:00,27.7,22.9,29.72,SSW,202,6.9,7.2,82,0.00,,,0.00,WUHU21623XXSP,2013-01-03 22:50:00,
2013-01-03 17:51:00,27.7,22.9,29.72,WSW,247,0.0,7.2,82,0.00,,,0.00,WUHU21623XXSP,2013-01-03 22:51:00,
2013-01-03 17:52:00,27.7,22.9,29.72,WSW,247,0.0,7.2,82,0.00,,,0.00,WUHU21623XXSP,2013-01-03 22:52:00,
2013-01-03 17:54:00,27.7,22.9,29.72,WSW,247,0.0,7.2,82,0.00,,,0.00,WUHU21623XXSP,2013-01-03 22:54:00,
2013-01-03 17:55:00,27.7,22.9,29.72,WSW,247,0.0,7.2,82,0.00,,,0.00,WUHU21623XXSP,2013-01-03 22:55:00,
2013-01-03 17:56:00,27.7,22.9,29.72,WSW,247,0.0,7.2,82,0.00,,,0.00,WUHU21623XXSP,2013-01-03 22:56:00,
2013-01-03 17:57:00,27.7,22.9,29.72,WSW,247,0.0,6.9,82,0.00,,,0.00,WUHU21623XXSP,2013-01-03 22:57:00,
2013-01-03 17:59:00,27.7,22.9,29.72,SW,225,4.9,6.9,82,0.00,,,0.00,WUHU21623XXSP,2013-01-03 22:59:00,
2013-01-03 18:00:00,27.7,22.9,29.72,SW,225,7.4,7.4,82,0.00,,,0.00,WUHU21623XXSP,2013-01-03 23:00:00,
2013-01-03 18:01:00,27.7,22.9,29.72,SW,225,7.4,7.4,82,0.00,,,0.00,WUHU21623XXSP,2013-01-03 23:01:00,
2013-01-03 18:02:00,27.7,22.9,29.72,SW,225,7.4,7.4,82,0.00,,,0.00,WUHU21623XXSP,2013-01-03 23:02:00,
2013-01-03 18:04:00,27.7,22.9,29.72,SW,225,4.5,7.4,82,0.00,,,0.00,WUHU21623XXSP,2013-01-03 23:04:00,
2013-01-03 18:05:00,27.7,22.9,29.72,SW,225,4.5,7.4,82,0.00,,,0.00,WUHU21623XXSP,2013-01-03 23:05:00,
2013-01-03 18:07:00,27.7,22.9,29.72,SSW,202,3.6,7.4,82,0.00,,,0.00,WUHU21623XXSP,2013-01-03 23:07:00,
2013-01-03 18:10:00,27.7,22.9,29.72,SW,225,6.3,8.1,82,0.00,,,0.00,WUHU21623XXSP,2013-01-03 23:10:00,
2013-01-03 18:11:00,27.7,22.9,29.72,SW,225,6.3,8.1,82,0.00,,,0.00,WUHU21623XXSP,2013-01-03 23:11:00,
2013-01-03 18:12:00,27.7,22.9,29.72,SW,225,6.3,8.1,82,0.00,,,0.00,WUHU21623XXSP,2013-01-03 23:12:00,
2013-01-03 18:16:00,27.7,22.9,29.72,SW,225,6.3,8.1,82,0.00,,,0.00,WUHU21623XXSP,2013-01-03 23:16:00,
2013-01-03 18:17:00,27.9,22.9,29.72,SSW,202,6.5,8.1,82,0.00,,,0.00,WUHU21623XXSP,2013-01-03 23:17:00,
2013-01-03 18:21:00,27.9,23.0,29.72,SSW,202,7.2,7.4,82,0.00,,,0.00,WUHU21623XXSP,2013-01-03 23:21:00,
2013-01-03 18:22:00,27.9,23.0,29.72,SSW,202,7.2,7.4,82,0.00,,,0.00,WUHU21623XXSP,2013-01-03 23:22:00,
2013-01-03 18:26:00,27.7,22.9,29.72,SSW,202,7.6,7.6,82,0.00,,,0.00,WUHU21623XXSP,2013-01-03 23:26:00,
2013-01-03 18:27:00,27.7,22.9,29.72,SSW,202,7.6,7.6,82,0.00,,,0.00,WUHU21623XXSP,2013-01-03 23:27:00,
2013-01-03 18:28:00,27.7,22.9,29.72,SSW,202,8.3,8.3,82,0.00,,,0.00,WUHU21623XXSP,2013-01-03 23:28:00,
2013-01-03 18:31:00,27.7,22.9,29.72,SW,225,8.5,8.5,82,0.00,,,0.00,WUHU21623XXSP,2013-01-03 23:31:00,
2013-01-03 18:33:00,27.7,22.9,29.72,SW,225,8.5,8.5,82,0.00,,,0.00,WUHU21623XXSP,2013-01-03 23:33:00,
2013-01-03 18:37:00,27.7,22.9,29.72,SSW,202,3.8,8.5,82,0.00,,,0.00,WUHU21623XXSP,2013-01-03 23:37:00,
2013-01-03 18:38:00,27.7,22.9,29.72,SSW,202,3.8,8.5,82,0.00,,,0.00,WUHU21623XXSP,2013-01-03 23:38:00,
2013-01-03 18:42:00,27.9,23.0,29.73,South,180,7.6,8.1,82,0.00,,,0.00,WUHU21623XXSP,2013-01-03 23:42:00,
2013-01-03 18:43:00,27.9,23.0,29.73,South,180,7.6,8.1,82,0.00,,,0.00,WUHU21623XXSP,2013-01-03 23:43:00,
2013-01-03 18:47:00,27.9,23.0,29.73,SSW,202,7.2,8.1,82,0.00,,,0.00,WUHU21623XXSP,2013-01-03 23:47:00,
2013-01-03 18:48:00,27.9,23.0,29.73,SSW,202,7.2,8.1,82,0.00,,,0.00,WUHU21623XXSP,2013-01-03 23:48:00,
2013-01-03 18:49:00,28.0,23.0,29.73,SSW,202,7.2,8.1,82,0.00,,,0.00,WUHU21623XXSP,2013-01-03 23:49:00,
2013-01-03 18:53:00,28.0,23.2,29.73,SSW,202,7.8,7.8,82,0.00,,,0.00,WUHU21623XXSP,2013-01-03 23:53:00,
2013-01-03 18:54:00,27.9,23.0,29.73,SSW,202,2.0,7.8,82,0.00,,,0.00,WUHU21623XXSP,2013-01-03 23:54:00,
2013-01-03 18:58:00,27.9,23.0,29.72,SW,225,4.3,7.8,82,0.00,,,0.00,WUHU21623XXSP,2013-01-03 23:58:00,
2013-01-03 18:59:00,27.9,23.0,29.72,SW,225,4.3,7.8,82,0.00,,,0.00,WUHU21623XXSP,2013-01-03 23:59:00,
2013-01-03 19:03:00,28.0,23.2,29.73,SW,225,8.7,8.7,82,0.00,,,0.00,WUHU21623XXSP,2013-01-04 00:03:00,
2013-01-03 19:04:00,28.0,23.2,29.73,SW,225,8.7,8.7,82,0.00,,,0.00,WUHU21623XXSP,2013-01-04 00:04:00,
2013-01-03 19:05:00,28.0,23.2,29.73,SW,225,8.7,8.7,82,0.00,,,0.00,WUHU21623XXSP,2013-01-04 00:05:00,
2013-01-03 19:08:00,27.9,23.0,29.73,SW,225,2.9,8.7,82,0.00,,,0.00,WUHU21623XXSP,2013-01-04 00:08:00,
2013-01-03 19:09:00,28.0,23.2,29.73,SW,225,7.4,8.7,82,0.00,,,0.00,WUHU21623XXSP,2013-01-04 00:09:00,
2013-01-03 19:10:00,27.9,23.0,29.73,WSW,247,7.4,8.7,82,0.00,,,0.00,WUHU21623XXSP,2013-01-04 00:10:00,
2013-01-03 19:14:00,28.0,23.2,29.73,SW,225,9.8,9.8,82,0.00,,,0.00,WUHU21623XXSP,2013-01-04 00:14:00,
2013-01-03 19:15:00,28.0,23.2,29.74,SW,225,9.8,9.8,82,0.00,,,0.00,WUHU21623XXSP,2013-01-04 00:15:00,
2013-01-03 19:19:00,28.0,23.2,29.74,WSW,247,7.8,9.8,82,0.00,,,0.00,WUHU21623XXSP,2013-01-04 00:19:00,
2013-01-03 19:20:00,28.0,23.2,29.74,WSW,247,7.8,9.8,82,0.00,,,0.00,WUHU21623XXSP,2013-01-04 00:20:00,
2013-01-03 19:24:00,28.0,23.2,29.73,SSW,202,6.0,9.8,82,0.00,,,0.00,WUHU21623XXSP,2013-01-04 00:24:00,
2013-01-03 19:25:00,28.0,23.2,29.73,SSW,202,6.0,8.1,82,0.00,,,0.00,WUHU21623XXSP,2013-01-04 00:25:00,
2013-01-03 19:29:00,28.2,23.4,29.74,WSW,247,7.2,8.7,82,0.00,,,0.00,WUHU21623XXSP,2013-01-04 00:29:00,
2013-01-03 19:30:00,28.2,23.4,29.74,WSW,247,7.2,8.7,82,0.00,,,0.00,WUHU21623XXSP,2013-01-04 00:30:00,
2013-01-03 19:31:00,28.2,23.4,29.74,WSW,247,7.2,8.7,82,0.00,,,0.00,WUHU21623XXSP,2013-01-04 00:31:00,
2013-01-03 19:34:00,28.2,23.4,29.74,SW,225,8.1,8.7,82,0.00,,,0.00,WUHU21623XXSP,2013-01-04 00:34:00,
2013-01-03 19:35:00,28.2,23.4,29.74,SW,225,8.1,8.7,82,0.00,,,0.00,WUHU21623XXSP,2013-01-04 00:35:00,
2013-01-03 19:36:00,28.2,23.4,29.74,SW,225,8.1,8.1,82,0.00,,,0.00,WUHU21623XXSP,2013-01-04 00:36:00,
2013-01-03 19:39:00,28.2,23.4,29.74,WSW,247,8.9,8.9,82,0.00,,,0.00,WUHU21623XXSP,2013-01-04 00:39:00,
2013-01-03 19:40:00,28.2,23.4,29.74,WSW,247,6.5,8.9,82,0.00,,,0.00,WUHU21623XXSP,2013-01-04 00:40:00,
2013-01-03 19:41:00,28.2,23.4,29.74,WSW,247,6.5,8.9,82,0.00,,,0.00,WUHU21623XXSP,2013-01-04 00:41:00,
2013-01-03 19:45:00,28.2,23.4,29.74,WSW,247,6.5,8.9,82,0.00,,,0.00,WUHU21623XXSP,2013-01-04 00:45:00,
2013-01-03 19:46:00,28.2,23.4,29.74,WSW,247,6.5,8.9,82,0.00,,,0.00,WUHU21623XXSP,2013-01-04 00:46:00,
2013-01-03 19:50:00,28.2,23.4,29.74,WSW,247,9.4,11.4,82,0.00,,,0.00,WUHU21623XXSP,2013-01-04 00:50:00,
2013-01-03 19:51:00,28.2,23.4,29.74,SW,225,8.5,11.4,82,0.00,,,0.00,WUHU21623XXSP,2013-01-04 00:51:00,
2013-01-03 19:55:00,28.2,23.4,29.75,WSW,247,6.3,11.4,82,0.00,,,0.00,WUHU21623XXSP,2013-01-04 00:55:00,
2013-01-03 19:56:00,28.2,23.4,29.75,WSW,247,6.3,11.4,82,0.00,,,0.00,WUHU21623XXSP,2013-01-04 00:56:00,
2013-01-03 19:57:00,28.2,23.4,29.75,WSW,247,6.3,9.4,82,0.00,,,0.00,WUHU21623XXSP,2013-01-04 00:57:00,
2013-01-03 20:00:00,28.2,23.4,29.75,SW,225,8.3,8.5,82,0.00,,,0.00,WUHU21623XXSP,2013-01-04 01:00:00,
2013-01-03 20:01:00,28.2,23.4,29.75,SW,225,8.3,8.5,82,0.00,,,0.00,WUHU21623XXSP,2013-01-04 01:01:00,
2013-01-03 20:02:00,28.2,23.4,29.75,SW,225,8.1,8.5,82,0.00,,,0.00,WUHU21623XXSP,2013-01-04 01:02:00,
2013-01-03 20:05:00,28.2,23.4,29.75,WSW,247,7.2,8.3,82,0.00,,,0.00,WUHU21623XXSP,2013-01-04 01:05:00,
2013-01-03 20:06:00,28.2,23.4,29.75,WSW,247,7.2,8.3,82,0.00,,,0.00,WUHU21623XXSP,2013-01-04 01:06:00,
2013-01-03 20:07:00,28.2,23.4,29.75,WSW,247,7.2,8.3,82,0.00,,,0.00,WUHU21623XXSP,2013-01-04 01:07:00,
2013-01-03 20:11:00,28.2,23.4,29.75,SW,225,7.8,8.1,82,0.00,,,0.00,WUHU21623XXSP,2013-01-04 01:11:00,
2013-01-03 20:12:00,28.2,23.4,29.75,SW,225,7.8,7.8,82,0.00,,,0.00,WUHU21623XXSP,2013-01-04 01:12:00,
2013-01-03 20:16:00,28.2,23.4,29.75,WSW,247,5.6,7.8,82,0.00,,,0.00,WUHU21623XXSP,2013-01-04 01:16:00,
2013-01-03 20:17:00,28.2,23.4,29.75,WSW,247,5.6,7.8,82,0.00,,,0.00,WUHU21623XXSP,2013-01-04 01:17:00,
2013-01-03 20:21:00,28.2,23.4,29.75,WSW,247,8.7,8.7,82,0.00,,,0.00,WUHU21623XXSP,2013-01-04 01:21:00,
2013-01-03 20:22:00,28.2,23.4,29.75,WSW,247,8.7,8.7,82,0.00,,,0.00,WUHU21623XXSP,2013-01-04 01:22:00,
2013-01-03 20:23:00,28.2,23.4,29.75,WSW,247,8.7,8.7,82,0.00,,,0.00,WUHU21623XXSP,2013-01-04 01:23:00,
2013-01-03 20:27:00,28.2,23.4,29.75,WSW,247,10.1,10.1,82,0.00,,,0.00,WUHU21623XXSP,2013-01-04 01:27:00,
2013-01-03 20:28:00,28.2,23.4,29.75,WSW,247,6.3,10.1,82,0.00,,,0.00,WUHU21623XXSP,2013-01-04 01:28:00,
2013-01-03 20:32:00,28.2,23.4,29.75,WSW,247,8.3,10.1,82,0.00,,,0.00,WUHU21623XXSP,2013-01-04 01:32:00,
2013-01-03 20:33:00,28.2,23.4,29.75,WSW,247,8.3,10.1,82,0.00,,,0.00,WUHU21623XXSP,2013-01-04 01:33:00,
2013-01-03 20:37:00,28.2,23.4,29.75,WSW,247,10.5,10.5,82,0.00,,,0.00,WUHU21623XXSP,2013-01-04 01:37:00,
2013-01-03 20:38:00,28.2,23.4,29.75,WSW,247,7.4,10.5,82,0.00,,,0.00,WUHU21623XXSP,2013-01-04 01:38:00,
2013-01-03 20:42:00,28.2,23.4,29.75,WSW,247,8.7,10.5,82,0.00,,,0.00,WUHU21623XXSP,2013-01-04 01:42:00,
2013-01-03 20:43:00,28.2,23.4,29.75,WSW,247,8.7,10.5,82,0.00,,,0.00,WUHU21623XXSP,2013-01-04 01:43:00,
2013-01-03 20:47:00,28.2,23.4,29.75,WSW,247,6.9,8.7,82,0.00,,,0.00,WUHU21623XXSP,2013-01-04 01:47:00,
2013-01-03 20:48:00,28.2,23.4,29.75,WSW,247,6.9,8.7,82,0.00,,,0.00,WUHU21623XXSP,2013-01-04 01:48:00,
2013-01-03 20:49:00,28.2,23.4,29.75,WSW,247,6.9,8.7,82,0.00,,,0.00,WUHU21623XXSP,2013-01-04 01:49:00,
2013-01-03 20:53:00,28.2,23.4,29.75,WSW,247,9.4,9.6,82,0.00,,,0.00,WUHU21623XXSP,2013-01-04 01:53:00,
2013-01-03 20:54:00,28.2,23.4,29.75,WSW,247,9.4,9.6,82,0.00,,,0.00,WUHU21623XXSP,2013-01-04 01:54:00,
2013-01-03 20:58:00,28.2,23.4,29.75,SW,225,8.1,9.6,82,0.00,,,0.00,WUHU21623XXSP,2013-01-04 01:58:00,
2013-01-03 20:59:00,28.2,23.4,29.75,SW,225,8.1,9.6,82,0.00,,,0.00,WUHU21623XXSP,2013-01-04 01:59:00,
2013-01-03 21:03:00,28.4,23.6,29.75,WSW,247,7.2,8.1,82,0.00,,,0.00,WUHU21623XXSP,2013-01-04 02:03:00,
2013-01-03 21:04:00,28.2,23.4,29.75,SW,225,7.6,8.1,82,0.00,,,0.00,WUHU21623XXSP,2013-01-04 02:04:00,
2013-01-03 21:09:00,28.2,23.4,29.75,SW,225,6.5,7.8,82,0.00,,,0.00,WUHU21623XXSP,2013-01-04 02:09:00,
2013-01-03 21:14:00,28.2,23.4,29.75,SW,225,6.5,7.6,82,0.00,,,0.00,WUHU21623XXSP,2013-01-04 02:14:00,
2013-01-03 21:19:00,28.2,23.4,29.75,SW,225,1.6,7.8,82,0.00,,,0.00,WUHU21623XXSP,2013-01-04 02:19:00,
2013-01-03 21:24:00,28.2,23.4,29.75,SW,225,6.5,7.8,82,0.00,,,0.00,WUHU21623XXSP,2013-01-04 02:24:00,
2013-01-03 21:29:00,28.2,23.4,29.75,SW,225,6.7,8.3,82,0.00,,,0.00,WUHU21623XXSP,2013-01-04 02:29:00,
2013-01-03 21:30:00,28.2,23.4,29.75,SW,225,6.7,8.3,82,0.00,,,0.00,WUHU21623XXSP,2013-01-04 02:30:00,
2013-01-03 21:34:00,28.2,23.4,29.75,SW,225,7.2,8.3,82,0.00,,,0.00,WUHU21623XXSP,2013-01-04 02:34:00,
2013-01-03 21:35:00,28.2,23.4,29.75,SW,225,7.2,8.3,82,0.00,,,0.00,WUHU21623XXSP,2013-01-04 02:35:00,
2013-01-03 21:39:00,28.2,23.4,29.75,SW,225,7.2,7.2,82,0.00,,,0.00,WUHU21623XXSP,2013-01-04 02:39:00,
2013-01-03 21:40:00,28.2,23.4,29.75,SW,225,7.2,7.2,82,0.00,,,0.00,WUHU21623XXSP,2013-01-04 02:40:00,
2013-01-03 21:44:00,28.2,23.4,29.75,WSW,247,7.6,8.7,82,0.00,,,0.00,WUHU21623XXSP,2013-01-04 02:44:00,
2013-01-03 21:45:00,28.2,23.4,29.75,WSW,247,7.6,8.7,82,0.00,,,0.00,WUHU21623XXSP,2013-01-04 02:45:00,
2013-01-03 21:46:00,28.2,23.4,29.75,WSW,247,7.6,8.7,82,0.00,,,0.00,WUHU21623XXSP,2013-01-04 02:46:00,
2013-01-03 21:49:00,28.2,23.4,29.75,SW,225,8.5,8.7,82,0.00,,,0.00,WUHU21623XXSP,2013-01-04 02:49:00,
2013-01-03 21:50:00,28.2,23.4,29.75,SW,225,8.5,8.7,82,0.00,,,0.00,WUHU21623XXSP,2013-01-04 02:50:00,
2013-01-03 21:51:00,28.2,23.4,29.75,SW,225,8.5,8.7,82,0.00,,,0.00,WUHU21623XXSP,2013-01-04 02:51:00,
2013-01-03 21:55:00,28.2,23.4,29.75,SW,225,8.5,8.5,82,0.00,,,0.00,WUHU21623XXSP,2013-01-04 02:55:00,
2013-01-03 21:56:00,28.2,23.4,29.75,SW,225,8.5,8.5,82,0.00,,,0.00,WUHU21623XXSP,2013-01-04 02:56:00,
2013-01-03 22:00:00,28.2,23.4,29.75,WSW,247,8.3,8.5,82,0.00,,,0.00,WUHU21623XXSP,2013-01-04 03:00:00,
2013-01-03 22:01:00,28.2,23.4,29.75,WSW,247,8.3,8.5,82,0.00,,,0.00,WUHU21623XXSP,2013-01-04 03:01:00,
2013-01-03 22:05:00,28.2,23.4,29.75,WSW,247,8.3,8.5,82,0.00,,,0.00,WUHU21623XXSP,2013-01-04 03:05:00,
2013-01-03 22:06:00,28.2,23.4,29.75,WSW,247,9.4,9.4,82,0.00,,,0.00,WUHU21623XXSP,2013-01-04 03:06:00,
2013-01-03 22:10:00,28.2,23.4,29.75,WSW,247,9.2,9.4,82,0.00,,,0.00,WUHU21623XXSP,2013-01-04 03:10:00,
2013-01-03 22:11:00,28.2,23.4,29.75,WSW,247,9.2,9.4,82,0.00,,,0.00,WUHU21623XXSP,2013-01-04 03:11:00,
2013-01-03 22:15:00,28.2,23.4,29.75,SW,225,7.6,9.4,82,0.00,,,0.00,WUHU21623XXSP,2013-01-04 03:15:00,
2013-01-03 22:17:00,28.2,23.4,29.76,SW,225,7.6,9.2,82,0.00,,,0.00,WUHU21623XXSP,2013-01-04 03:17:00,
2013-01-03 22:20:00,28.2,23.4,29.75,WSW,247,7.6,9.2,82,0.00,,,0.00,WUHU21623XXSP,2013-01-04 03:20:00,
2013-01-03 22:22:00,28.2,23.4,29.75,WSW,247,10.1,10.1,82,0.00,,,0.00,WUHU21623XXSP,2013-01-04 03:22:00,
2013-01-03 22:25:00,28.2,23.4,29.75,WSW,247,6.7,10.1,82,0.00,,,0.00,WUHU21623XXSP,2013-01-04 03:25:00,
2013-01-03 22:26:00,28.2,23.4,29.75,WSW,247,6.7,10.1,82,0.00,,,0.00,WUHU21623XXSP,2013-01-04 03:26:00,
2013-01-03 22:27:00,28.2,23.4,29.75,WSW,247,6.7,10.1,82,0.00,,,0.00,WUHU21623XXSP,2013-01-04 03:27:00,
2013-01-03 22:31:00,28.0,23.2,29.75,WSW,247,4.7,10.1,82,0.00,,,0.00,WUHU21623XXSP,2013-01-04 03:31:00,
2013-01-03 22:32:00,28.0,23.2,29.75,WSW,247,4.7,10.1,82,0.00,,,0.00,WUHU21623XXSP,2013-01-04 03:32:00,
2013-01-03 22:36:00,28.0,23.2,29.75,WSW,247,4.7,6.7,82,0.00,,,0.00,WUHU21623XXSP,2013-01-04 03:36:00,
2013-01-03 22:37:00,28.0,23.2,29.75,WSW,247,4.7,4.7,82,0.00,,,0.00,WUHU21623XXSP,2013-01-04 03:37:00,
2013-01-03 22:41:00,28.0,23.2,29.75,SW,225,8.3,8.3,82,0.00,,,0.00,WUHU21623XXSP,2013-01-04 03:41:00,
2013-01-03 22:42:00,28.0,23.2,29.75,SW,225,8.1,8.3,82,0.00,,,0.00,WUHU21623XXSP,2013-01-04 03:42:00,
2013-01-03 22:46:00,28.0,23.2,29.76,SW,225,7.4,8.3,82,0.00,,,0.00,WUHU21623XXSP,2013-01-04 03:46:00,
2013-01-03 22:47:00,28.0,23.2,29.76,SW,225,7.4,8.3,82,0.00,,,0.00,WUHU21623XXSP,2013-01-04 03:47:00,
2013-01-03 22:51:00,28.0,23.2,29.75,SW,225,6.9,8.1,82,0.00,,,0.00,WUHU21623XXSP,2013-01-04 03:51:00,
2013-01-03 22:52:00,28.0,23.2,29.75,SW,225,6.9,8.1,82,0.00,,,0.00,WUHU21623XXSP,2013-01-04 03:52:00,
2013-01-03 22:57:00,28.0,23.2,29.75,SW,225,7.4,7.4,82,0.00,,,0.00,WUHU21623XXSP,2013-01-04 03:57:00,
2013-01-03 22:58:00,28.0,23.2,29.75,SW,225,7.4,7.4,82,0.00,,,0.00,WUHU21623XXSP,2013-01-04 03:58:00,
2013-01-03 23:02:00,28.0,23.2,29.75,WSW,247,7.4,7.4,82,0.00,,,0.00,WUHU21623XXSP,2013-01-04 04:02:00,
2013-01-03 23:04:00,28.0,23.2,29.75,SW,225,8.3,8.3,82,0.00,,,0.00,WUHU21623XXSP,2013-01-04 04:04:00,
2013-01-03 23:07:00,28.0,22.9,29.75,SW,225,4.7,8.3,81,0.00,,,0.00,WUHU21623XXSP,2013-01-04 04:07:00,
2013-01-03 23:09:00,28.0,22.9,29.75,SW,225,4.7,8.3,81,0.00,,,0.00,WUHU21623XXSP,2013-01-04 04:09:00,
2013-01-03 23:12:00,28.0,22.9,29.75,SW,225,8.3,8.3,81,0.00,,,0.00,WUHU21623XXSP,2013-01-04 04:12:00,
2013-01-03 23:14:00,28.0,22.9,29.75,SW,225,8.3,8.3,81,0.00,,,0.00,WUHU21623XXSP,2013-01-04 04:14:00,
2013-01-03 23:17:00,28.0,22.9,29.75,SW,225,8.3,8.3,81,0.00,,,0.00,WUHU21623XXSP,2013-01-04 04:17:00,
2013-01-03 23:19:00,28.0,22.9,29.75,SW,225,8.1,8.3,81,0.00,,,0.00,WUHU21623XXSP,2013-01-04 04:19:00,
2013-01-03 23:22:00,28.0,22.9,29.75,WSW,247,11.4,11.4,81,0.00,,,0.00,WUHU21623XXSP,2013-01-04 04:22:00,
2013-01-03 23:24:00,27.9,22.9,29.75,WSW,247,11.4,11.4,81,0.00,,,0.00,WUHU21623XXSP,2013-01-04 04:24:00,
2013-01-03 23:27:00,27.7,22.6,29.75,SW,225,6.3,11.4,81,0.00,,,0.00,WUHU21623XXSP,2013-01-04 04:27:00,
2013-01-03 23:29:00,27.7,22.6,29.75,SW,225,6.3,11.4,81,0.00,,,0.00,WUHU21623XXSP,2013-01-04 04:29:00,
2013-01-03 23:32:00,27.7,22.6,29.75,WSW,247,6.9,11.4,81,0.00,,,0.00,WUHU21623XXSP,2013-01-04 04:32:00,
2013-01-03 23:33:00,27.7,22.6,29.75,WSW,247,6.9,8.3,81,0.00,,,0.00,WUHU21623XXSP,2013-01-04 04:33:00,
2013-01-03 23:34:00,27.7,22.6,29.75,WSW,247,6.9,8.3,81,0.00,,,0.00,WUHU21623XXSP,2013-01-04 04:34:00,
2013-01-03 23:37:00,27.7,22.6,29.75,WSW,247,6.9,6.9,81,0.00,,,0.00,WUHU21623XXSP,2013-01-04 04:37:00,
2013-01-03 23:38:00,27.7,22.6,29.75,SSW,202,6.5,6.9,81,0.00,,,0.00,WUHU21623XXSP,2013-01-04 04:38:00,
2013-01-03 23:39:00,27.7,22.6,29.75,SSW,202,6.5,6.9,81,0.00,,,0.00,WUHU21623XXSP,2013-01-04 04:39:00,
2013-01-03 23:42:00,27.7,22.6,29.75,SSW,202,2.5,6.9,81,0.00,,,0.00,WUHU21623XXSP,2013-01-04 04:42:00,
2013-01-03 23:43:00,27.7,22.6,29.75,SSW,202,2.5,6.9,81,0.00,,,0.00,WUHU21623XXSP,2013-01-04 04:43:00,
2013-01-03 23:45:00,27.7,22.6,29.75,SW,225,9.2,9.2,81,0.00,,,0.00,WUHU21623XXSP,2013-01-04 04:45:00,
2013-01-03 23:48:00,27.7,22.6,29.75,SW,225,2.9,9.2,81,0.00,,,0.00,WUHU21623XXSP,2013-01-04 04:48:00,
2013-01-03 23:49:00,27.7,22.6,29.75,SW,225,7.6,9.2,81,0.00,,,0.00,WUHU21623XXSP,2013-01-04 04:49:00,
2013-01-03 23:50:00,27.7,22.6,29.75,SW,225,7.6,9.2,81,0.00,,,0.00,WUHU21623XXSP,2013-01-04 04:50:00,
2013-01-03 23:53:00,27.7,22.6,29.75,SW,225,5.4,9.2,81,0.00,,,0.00,WUHU21623XXSP,2013-01-04 04:53:00,
2013-01-03 23:54:00,27.7,22.6,29.75,SW,225,5.4,9.2,81,0.00,,,0.00,WUHU21623XXSP,2013-01-04 04:54:00,
2013-01-03 23:55:00,27.7,22.6,29.75,SW,225,5.4,7.6,81,0.00,,,0.00,WUHU21623XXSP,2013-01-04 04:55:00,
2013-01-03 23:58:00,27.7,22.6,29.75,SSW,202,2.0,8.7,81,0.00,,,0.00,WUHU21623XXSP,2013-01-04 04:58:00,
2013-01-03 23:59:00,27.7,22.6,29.75,SW,225,6.3,8.7,81,0.00,,,0.00,WUHU21623XXSP,2013-01-04 04:59:00,